GFSNW_prec_precacc24_024.txt.gz
Total_Precipitation_Accumulation
0.00 0.00 0.00 0.00 0.00 0.00 0.00 0.00 0.00 0.00 0.00 0.00 0.00 0.00 0.00 0.00 0.00 0.00 0.00 0.00 0.00 0.00 0.00 0.00 0.00 0.00 0.00 0.00 0.00 0.00 0.00 0.00 0.00 0.00 0.00 0.00 0.00 0.00 0.00 0.01 0.02 0.01 0.03 0.01
0.00 0.00 0.00 0.00 0.00 0.00 0.00 0.00 0.00 0.00 0.00 0.01 0.00 0.00 0.00 0.00 0.00 0.00 0.00 0.00 0.00 0.00 0.00 0.00 0.00 0.00 0.00 0.00 0.00 0.00 0.00 0.00 0.00 0.00 0.00 0.00 0.00 0.00 0.00 0.00 0.00 0.01 0.03 0.00
0.00 0.00 0.01 0.00 0.00 0.00 0.00 0.00 0.00 0.00 0.00 0.00 0.00 0.00 0.00 0.00 0.00 0.00 0.00 0.00 0.00 0.00 0.00 0.00 0.00 0.00 0.00 0.00 0.00 0.00 0.00 0.00 0.00 0.00 0.00 0.00 0.00 0.00 0.00 0.00 0.00 0.00 0.00 0.00
0.00 0.01 0.01 0.00 0.00 0.00 0.00 0.00 0.00 0.00 0.00 0.00 0.00 0.00 0.00 0.00 0.00 0.00 0.00 0.00 0.00 0.00 0.00 0.00 0.00 0.00 0.00 0.00 0.00 0.00 0.00 0.00 0.00 0.00 0.00 0.00 0.00 0.00 0.00 0.00 0.00 0.00 0.00 0.00
0.01 0.01 0.01 0.00 0.00 0.00 0.00 0.00 0.00 0.00 0.00 0.00 0.00 0.00 0.00 0.00 0.00 0.00 0.00 0.00 0.00 0.00 0.00 0.00 0.00 0.00 0.00 0.00 0.00 0.00 0.00 0.00 0.00 0.00 0.00 0.00 0.00 0.00 0.00 0.00 0.00 0.00 0.00 0.00
0.01 0.01 0.01 0.00 0.00 0.00 0.00 0.00 0.00 0.00 0.00 0.00 0.00 0.00 0.00 0.00 0.00 0.00 0.00 0.00 0.00 0.00 0.00 0.00 0.00 0.00 0.00 0.00 0.00 0.00 0.00 0.00 0.01 0.01 0.00 0.01 0.01 0.00 0.00 0.00 0.00 0.00 0.00 0.00
0.01 0.02 0.01 0.00 0.00 0.00 0.00 0.00 0.00 0.01 0.01 0.00 0.00 0.00 0.00 0.00 0.00 0.00 0.00 0.00 0.00 0.00 0.00 0.00 0.00 0.00 0.00 0.00 0.00 0.00 0.00 0.00 0.01 0.01 0.02 0.07 0.00 0.00 0.00 0.00 0.00 0.00 0.00 0.00
0.01 0.01 0.00 0.00 0.00 0.00 0.00 0.00 0.00 0.01 0.03 0.00 0.00 0.00 0.00 0.00 0.00 0.00 0.00 0.00 0.00 0.00 0.00 0.00 0.00 0.00 0.00 0.00 0.00 0.00 0.00 0.00 0.01 0.02 0.03 0.02 0.00 0.00 0.00 0.00 0.00 0.00 0.00 0.02
0.01 0.00 0.00 0.00 0.00 0.00 0.00 0.00 0.00 0.01 0.02 0.00 0.00 0.00 0.00 0.00 0.01 0.01 0.01 0.00 0.00 0.00 0.01 0.01 0.01 0.00 0.00 0.00 0.00 0.00 0.00 0.00 0.02 0.02 0.05 0.04 0.00 0.00 0.00 0.00 0.00 0.01 0.04 0.09
0.00 0.00 0.00 0.00 0.00 0.00 0.00 0.02 0.01 0.04 0.03 0.00 0.00 0.00 0.00 0.00 0.01 0.02 0.02 0.02 0.01 0.00 0.01 0.02 0.01 0.01 0.00 0.01 0.01 0.01 0.01 0.00 0.00 0.00 0.03 0.01 0.00 0.00 0.01 0.12 0.15 0.06 0.12 0.17
0.00 0.00 0.00 0.00 0.00 0.00 0.00 0.02 0.05 0.12 0.08 0.00 0.00 0.00 0.00 0.00 0.01 0.04 0.04 0.03 0.00 0.01 0.01 0.01 0.00 0.01 0.01 0.01 0.00 0.01 0.03 0.09 0.10 0.07 0.16 0.05 0.00 0.02 0.13 0.16 0.07 0.08 0.06 0.05
0.00 0.00 0.00 0.00 0.00 0.00 0.00 0.01 0.05 0.09 0.12 0.02 0.00 0.00 0.00 0.00 0.00 0.04 0.08 0.04 0.03 0.06 0.03 0.01 0.01 0.01 0.01 0.00 0.02 0.00 0.01 0.01 0.02 0.04 0.03 0.00 0.00 0.02 0.01 0.03 0.09 0.06 0.07 0.08
0.00 0.00 0.00 0.00 0.01 0.02 0.02 0.01 0.04 0.03 0.05 0.03 0.02 0.00 0.00 0.00 0.00 0.02 0.11 0.04 0.03 0.07 0.09 0.16 0.09 0.12 0.06 0.05 0.04 0.01 0.04 0.02 0.02 0.02 0.01 0.00 0.01 0.01 0.02 0.06 0.08 0.13 0.20 0.24
0.00 0.00 0.00 0.00 0.00 0.00 0.02 0.03 0.04 0.10 0.13 0.11 0.03 0.00 0.00 0.00 0.00 0.00 0.01 0.04 0.10 0.17 0.25 0.24 0.17 0.23 0.12 0.07 0.02 0.05 0.08 0.06 0.03 0.04 0.01 0.02 0.04 0.07 0.12 0.19 0.31 0.29 0.19 0.14
0.01 0.01 0.01 0.00 0.00 0.02 0.05 0.08 0.04 0.08 0.22 0.21 0.08 0.02 0.00 0.00 0.00 0.00 0.01 0.06 0.10 0.21 0.20 0.13 0.04 0.02 0.04 0.06 0.09 0.13 0.06 0.03 0.05 0.09 0.05 0.20 0.14 0.26 0.38 0.37 0.27 0.15 0.09 0.04
0.06 0.05 0.05 0.06 0.09 0.28 0.66 0.62 0.18 0.07 0.18 0.63 0.36 0.04 0.00 0.00 0.00 0.00 0.00 0.01 0.09 0.23 0.13 0.04 0.01 0.01 0.10 0.26 0.14 0.02 0.00 0.01 0.11 0.16 0.12 0.19 0.30 0.32 0.22 0.20 0.13 0.04 0.01 0.00
0.05 0.09 0.14 0.20 0.39 0.74 0.90 0.64 0.18 0.04 0.20 0.96 0.68 0.12 0.01 0.00 0.00 0.01 0.02 0.04 0.09 0.11 0.10 0.05 0.02 0.03 0.29 0.40 0.16 0.01 0.00 0.01 0.04 0.05 0.10 0.19 0.19 0.19 0.14 0.06 0.01 0.00 0.00 0.00
0.07 0.09 0.18 0.46 1.10 1.31 0.97 0.64 0.60 0.44 0.45 0.70 0.65 0.20 0.02 0.00 0.00 0.01 0.00 0.00 0.01 0.04 0.06 0.05 0.05 0.04 0.14 0.25 0.04 0.00 0.00 0.00 0.00 0.01 0.02 0.08 0.04 0.01 0.01 0.00 0.00 0.00 0.00 0.00
0.26 0.40 0.59 0.71 0.61 0.48 0.52 0.74 0.80 0.94 1.00 1.09 0.57 0.09 0.03 0.05 0.04 0.03 0.04 0.07 0.13 0.10 0.05 0.02 0.06 0.03 0.06 0.02 0.00 0.00 0.00 0.00 0.01 0.00 0.00 0.00 0.00 0.00 0.01 0.00 0.00 0.00 0.00 0.00
0.68 0.72 0.69 0.74 0.57 0.54 0.43 0.58 0.85 1.26 1.35 1.11 0.52 0.13 0.10 0.06 0.07 0.13 0.17 0.29 0.22 0.18 0.02 0.03 0.05 0.02 0.00 0.00 0.00 0.00 0.00 0.00 0.00 0.00 0.01 0.03 0.04 0.02 0.00 0.00 0.00 0.00 0.00 0.00
0.88 0.87 0.82 0.58 0.52 0.41 0.46 0.57 0.57 0.59 0.47 0.33 0.16 0.07 0.08 0.08 0.15 0.29 0.36 0.30 0.15 0.16 0.01 0.09 0.07 0.01 0.00 0.00 0.00 0.00 0.00 0.00 0.00 0.01 0.01 0.01 0.00 0.00 0.00 0.00 0.00 0.00 0.00 0.00
0.74 0.49 0.57 0.63 0.50 0.38 0.42 0.49 0.36 0.18 0.09 0.03 0.02 0.02 0.06 0.16 0.20 0.27 0.34 0.18 0.14 0.09 0.02 0.07 0.06 0.01 0.00 0.00 0.00 0.00 0.00 0.00 0.00 0.00 0.00 0.00 0.00 0.00 0.00 0.00 0.00 0.00 0.00 0.00
0.46 0.51 0.65 0.57 0.46 0.30 0.19 0.13 0.11 0.08 0.03 0.03 0.01 0.03 0.03 0.04 0.06 0.22 0.24 0.24 0.21 0.11 0.13 0.07 0.02 0.02 0.00 0.00 0.00 0.00 0.00 0.00 0.00 0.00 0.00 0.00 0.00 0.00 0.00 0.00 0.00 0.00 0.00 0.00
0.26 0.34 0.38 0.26 0.21 0.11 0.06 0.03 0.02 0.03 0.04 0.04 0.02 0.03 0.02 0.02 0.04 0.06 0.07 0.09 0.06 0.09 0.03 0.01 0.01 0.00 0.00 0.00 0.00 0.00 0.00 0.00 0.00 0.00 0.00 0.00 0.00 0.00 0.00 0.00 0.00 0.00 0.00 0.00
0.05 0.04 0.10 0.08 0.10 0.06 0.04 0.02 0.01 0.02 0.02 0.01 0.03 0.05 0.03 0.02 0.03 0.02 0.02 0.03 0.01 0.01 0.00 0.02 0.01 0.00 0.00 0.00 0.00 0.00 0.00 0.00 0.00 0.00 0.00 0.00 0.00 0.00 0.00 0.00 0.00 0.00 0.00 0.00
0.00 0.00 0.01 0.04 0.02 0.03 0.01 0.00 0.01 0.01 0.01 0.00 0.00 0.01 0.01 0.02 0.02 0.02 0.01 0.00 0.00 0.00 0.02 0.02 0.00 0.00 0.00 0.00 0.00 0.00 0.00 0.00 0.00 0.00 0.00 0.00 0.00 0.00 0.01 0.01 0.01 0.02 0.01 0.01
0.00 0.00 0.00 0.02 0.01 0.01 0.00 0.00 0.00 0.01 0.00 0.00 0.00 0.00 0.00 0.00 0.01 0.00 0.00 0.00 0.00 0.00 0.00 0.00 0.00 0.00 0.00 0.00 0.00 0.00 0.00 0.00 0.00 0.00 0.00 0.01 0.01 0.03 0.04 0.04 0.02 0.01 0.01 0.02

GFSNW_prec_precacc24_030.txt.gz
Total_Precipitation_Accumulation
0.00 0.00 0.00 0.00 0.00 0.00 0.00 0.00 0.00 0.00 0.00 0.00 0.00 0.00 0.00 0.00 0.00 0.00 0.00 0.00 0.00 0.00 0.00 0.00 0.00 0.00 0.00 0.00 0.00 0.00 0.00 0.00 0.00 0.00 0.00 0.00 0.00 0.00 0.00 0.01 0.02 0.00 0.02 0.01
0.00 0.00 0.01 0.00 0.00 0.00 0.00 0.00 0.00 0.00 0.00 0.00 0.00 0.00 0.00 0.00 0.00 0.00 0.00 0.00 0.00 0.00 0.00 0.00 0.00 0.00 0.00 0.00 0.00 0.00 0.00 0.00 0.00 0.00 0.00 0.00 0.00 0.00 0.00 0.00 0.00 0.00 0.01 0.00
0.00 0.00 0.01 0.00 0.00 0.00 0.00 0.00 0.00 0.00 0.00 0.00 0.00 0.00 0.00 0.00 0.00 0.00 0.00 0.00 0.00 0.00 0.00 0.00 0.00 0.00 0.00 0.00 0.00 0.00 0.00 0.00 0.00 0.00 0.00 0.00 0.00 0.00 0.00 0.00 0.00 0.00 0.00 0.00
0.01 0.01 0.01 0.00 0.00 0.00 0.00 0.00 0.00 0.00 0.00 0.00 0.00 0.00 0.00 0.00 0.00 0.00 0.00 0.00 0.00 0.00 0.00 0.00 0.00 0.00 0.00 0.00 0.00 0.00 0.00 0.00 0.00 0.00 0.00 0.00 0.00 0.00 0.00 0.00 0.00 0.00 0.00 0.00
0.01 0.01 0.01 0.00 0.00 0.00 0.00 0.00 0.00 0.00 0.00 0.00 0.00 0.00 0.00 0.00 0.00 0.00 0.00 0.00 0.00 0.00 0.00 0.00 0.00 0.00 0.00 0.00 0.00 0.00 0.00 0.00 0.00 0.00 0.00 0.00 0.00 0.00 0.00 0.00 0.00 0.00 0.00 0.00
0.01 0.02 0.01 0.00 0.00 0.00 0.00 0.00 0.00 0.00 0.00 0.00 0.00 0.00 0.00 0.00 0.00 0.00 0.00 0.00 0.00 0.00 0.00 0.00 0.00 0.00 0.00 0.00 0.00 0.00 0.00 0.00 0.00 0.00 0.00 0.01 0.00 0.00 0.00 0.00 0.00 0.00 0.00 0.00
0.01 0.02 0.01 0.00 0.00 0.00 0.00 0.00 0.00 0.00 0.00 0.00 0.00 0.00 0.00 0.00 0.00 0.00 0.00 0.00 0.00 0.00 0.00 0.00 0.00 0.00 0.00 0.00 0.00 0.00 0.00 0.00 0.00 0.01 0.01 0.04 0.00 0.00 0.00 0.00 0.00 0.00 0.00 0.00
0.01 0.02 0.00 0.00 0.00 0.00 0.00 0.00 0.00 0.00 0.02 0.00 0.00 0.00 0.00 0.00 0.00 0.00 0.00 0.00 0.00 0.00 0.00 0.00 0.00 0.00 0.00 0.00 0.00 0.00 0.00 0.00 0.00 0.00 0.01 0.01 0.00 0.00 0.00 0.00 0.00 0.00 0.00 0.02
0.01 0.00 0.00 0.00 0.00 0.00 0.00 0.00 0.00 0.00 0.01 0.00 0.00 0.00 0.00 0.00 0.00 0.00 0.00 0.00 0.00 0.00 0.00 0.00 0.00 0.00 0.00 0.00 0.00 0.00 0.00 0.00 0.00 0.01 0.02 0.02 0.00 0.00 0.00 0.00 0.00 0.01 0.03 0.05
0.00 0.00 0.00 0.00 0.00 0.00 0.00 0.00 0.01 0.01 0.00 0.00 0.00 0.00 0.00 0.00 0.00 0.00 0.00 0.01 0.00 0.00 0.01 0.02 0.01 0.00 0.00 0.00 0.00 0.00 0.00 0.00 0.00 0.00 0.02 0.01 0.00 0.00 0.01 0.08 0.11 0.03 0.06 0.10
0.00 0.00 0.00 0.00 0.00 0.00 0.00 0.00 0.03 0.04 0.01 0.00 0.00 0.00 0.00 0.00 0.01 0.01 0.01 0.01 0.00 0.00 0.00 0.01 0.00 0.00 0.00 0.00 0.00 0.00 0.00 0.00 0.00 0.02 0.05 0.02 0.00 0.01 0.06 0.05 0.03 0.03 0.03 0.02
0.00 0.00 0.00 0.00 0.00 0.00 0.00 0.00 0.02 0.05 0.04 0.01 0.00 0.00 0.00 0.00 0.00 0.02 0.01 0.01 0.01 0.01 0.00 0.00 0.00 0.00 0.00 0.00 0.01 0.00 0.00 0.00 0.00 0.02 0.01 0.00 0.00 0.02 0.01 0.01 0.02 0.01 0.03 0.07
0.00 0.00 0.00 0.00 0.00 0.00 0.00 0.00 0.01 0.01 0.01 0.00 0.00 0.00 0.00 0.00 0.00 0.01 0.03 0.00 0.02 0.03 0.04 0.06 0.06 0.10 0.04 0.03 0.02 0.01 0.02 0.00 0.00 0.01 0.00 0.00 0.00 0.00 0.00 0.01 0.03 0.10 0.17 0.22
0.00 0.00 0.00 0.00 0.00 0.00 0.00 0.00 0.01 0.01 0.02 0.04 0.01 0.00 0.00 0.00 0.00 0.00 0.00 0.02 0.05 0.12 0.15 0.15 0.16 0.20 0.11 0.06 0.02 0.03 0.06 0.04 0.02 0.02 0.00 0.01 0.01 0.03 0.08 0.17 0.29 0.27 0.17 0.12
0.00 0.00 0.00 0.00 0.00 0.00 0.01 0.02 0.01 0.01 0.04 0.04 0.01 0.00 0.00 0.00 0.00 0.00 0.01 0.05 0.08 0.11 0.11 0.10 0.04 0.01 0.03 0.06 0.08 0.12 0.05 0.02 0.03 0.03 0.03 0.12 0.19 0.29 0.40 0.34 0.21 0.11 0.05 0.03
0.01 0.01 0.01 0.02 0.03 0.09 0.15 0.13 0.02 0.00 0.04 0.24 0.13 0.01 0.00 0.00 0.00 0.00 0.00 0.00 0.05 0.10 0.06 0.02 0.01 0.01 0.05 0.12 0.07 0.01 0.00 0.00 0.04 0.09 0.08 0.16 0.31 0.34 0.21 0.14 0.09 0.03 0.01 0.00
0.01 0.03 0.04 0.06 0.15 0.30 0.32 0.18 0.06 0.00 0.08 0.36 0.23 0.03 0.00 0.00 0.00 0.00 0.00 0.00 0.01 0.05 0.07 0.05 0.02 0.02 0.21 0.31 0.14 0.01 0.00 0.01 0.03 0.04 0.08 0.17 0.19 0.16 0.12 0.04 0.01 0.00 0.00 0.00
0.04 0.06 0.15 0.33 0.70 0.68 0.44 0.25 0.28 0.22 0.21 0.36 0.33 0.10 0.01 0.00 0.00 0.00 0.00 0.00 0.00 0.02 0.04 0.04 0.03 0.03 0.11 0.23 0.04 0.00 0.00 0.00 0.00 0.01 0.02 0.06 0.03 0.01 0.01 0.00 0.00 0.00 0.00 0.00
0.24 0.38 0.60 0.66 0.52 0.35 0.35 0.47 0.55 0.75 0.74 0.70 0.33 0.05 0.03 0.05 0.03 0.02 0.02 0.03 0.05 0.05 0.03 0.01 0.02 0.01 0.03 0.01 0.00 0.00 0.00 0.00 0.00 0.00 0.00 0.00 0.00 0.00 0.01 0.00 0.00 0.00 0.00 0.00
0.76 0.77 0.76 0.76 0.55 0.54 0.36 0.47 0.68 0.98 1.05 0.80 0.36 0.11 0.09 0.05 0.04 0.04 0.07 0.14 0.12 0.10 0.01 0.00 0.02 0.03 0.00 0.00 0.00 0.00 0.00 0.00 0.00 0.00 0.01 0.03 0.04 0.02 0.00 0.00 0.00 0.00 0.00 0.00
1.63 1.27 0.98 0.65 0.64 0.43 0.48 0.57 0.53 0.53 0.39 0.24 0.13 0.07 0.06 0.05 0.08 0.19 0.27 0.21 0.11 0.10 0.01 0.04 0.05 0.01 0.00 0.00 0.00 0.00 0.00 0.00 0.00 0.01 0.01 0.01 0.00 0.00 0.00 0.00 0.00 0.00 0.00 0.00
1.29 0.89 0.76 0.80 0.65 0.55 0.64 0.71 0.46 0.18 0.08 0.03 0.02 0.02 0.05 0.16 0.20 0.27 0.40 0.21 0.16 0.08 0.01 0.08 0.06 0.01 0.00 0.00 0.00 0.00 0.00 0.00 0.00 0.00 0.00 0.00 0.00 0.00 0.00 0.00 0.00 0.00 0.00 0.00
0.94 1.08 1.22 1.05 1.07 0.87 0.60 0.31 0.14 0.06 0.02 0.02 0.01 0.04 0.06 0.10 0.13 0.27 0.26 0.21 0.16 0.05 0.05 0.02 0.00 0.00 0.00 0.00 0.00 0.00 0.00 0.00 0.00 0.00 0.00 0.00 0.00 0.00 0.00 0.00 0.00 0.00 0.00 0.00
0.87 1.21 1.26 0.90 0.81 0.54 0.29 0.07 0.01 0.01 0.01 0.01 0.02 0.07 0.08 0.11 0.15 0.19 0.19 0.18 0.10 0.12 0.05 0.01 0.00 0.00 0.00 0.00 0.00 0.00 0.00 0.00 0.00 0.00 0.00 0.00 0.00 0.00 0.00 0.00 0.00 0.00 0.00 0.00
0.26 0.33 0.49 0.48 0.40 0.23 0.14 0.09 0.04 0.05 0.06 0.05 0.07 0.12 0.10 0.10 0.14 0.13 0.11 0.10 0.07 0.03 0.03 0.02 0.00 0.00 0.00 0.00 0.00 0.00 0.00 0.00 0.00 0.00 0.00 0.00 0.00 0.00 0.00 0.00 0.00 0.00 0.00 0.00
0.06 0.14 0.22 0.23 0.21 0.21 0.13 0.09 0.08 0.09 0.11 0.10 0.09 0.09 0.09 0.12 0.09 0.07 0.08 0.07 0.05 0.06 0.01 0.00 0.00 0.00 0.00 0.00 0.00 0.00 0.00 0.00 0.00 0.00 0.00 0.00 0.00 0.00 0.00 0.00 0.00 0.01 0.01 0.01
0.00 0.02 0.05 0.07 0.07 0.08 0.09 0.10 0.10 0.08 0.10 0.09 0.06 0.05 0.08 0.07 0.06 0.03 0.02 0.03 0.02 0.00 0.00 0.00 0.00 0.00 0.00 0.00 0.00 0.00 0.00 0.00 0.00 0.00 0.00 0.00 0.00 0.00 0.00 0.00 0.01 0.01 0.01 0.02

GFSNW_prec_precacc24_036.txt.gz
Total_Precipitation_Accumulation
0.00 0.01 0.01 0.01 0.00 0.00 0.00 0.00 0.00 0.00 0.00 0.00 0.00 0.00 0.00 0.00 0.00 0.00 0.00 0.00 0.00 0.00 0.00 0.00 0.00 0.00 0.00 0.00 0.00 0.00 0.00 0.00 0.00 0.00 0.00 0.00 0.00 0.00 0.00 0.00 0.00 0.00 0.00 0.00
0.01 0.01 0.01 0.01 0.00 0.00 0.00 0.00 0.00 0.00 0.00 0.00 0.00 0.00 0.00 0.00 0.00 0.00 0.00 0.00 0.00 0.00 0.00 0.00 0.00 0.00 0.00 0.00 0.00 0.00 0.00 0.00 0.00 0.00 0.00 0.00 0.00 0.00 0.00 0.00 0.00 0.00 0.00 0.00
0.01 0.01 0.01 0.01 0.00 0.00 0.00 0.01 0.00 0.00 0.00 0.00 0.00 0.00 0.00 0.00 0.00 0.00 0.00 0.00 0.00 0.00 0.00 0.00 0.00 0.00 0.00 0.00 0.00 0.00 0.00 0.00 0.00 0.00 0.00 0.00 0.00 0.00 0.00 0.00 0.00 0.00 0.00 0.00
0.01 0.01 0.01 0.00 0.00 0.00 0.00 0.01 0.00 0.00 0.00 0.00 0.00 0.00 0.00 0.00 0.00 0.00 0.00 0.00 0.00 0.00 0.00 0.00 0.00 0.00 0.00 0.00 0.00 0.00 0.00 0.00 0.00 0.00 0.00 0.00 0.00 0.00 0.00 0.00 0.00 0.00 0.00 0.00
0.02 0.01 0.01 0.00 0.00 0.00 0.00 0.02 0.00 0.00 0.00 0.00 0.00 0.00 0.00 0.00 0.00 0.00 0.00 0.00 0.00 0.00 0.00 0.00 0.00 0.00 0.00 0.00 0.00 0.00 0.00 0.00 0.00 0.00 0.00 0.00 0.00 0.00 0.00 0.00 0.00 0.00 0.00 0.00
0.02 0.02 0.01 0.00 0.00 0.00 0.00 0.00 0.00 0.00 0.00 0.00 0.00 0.00 0.00 0.00 0.00 0.00 0.00 0.00 0.00 0.00 0.00 0.00 0.00 0.00 0.00 0.00 0.00 0.00 0.00 0.00 0.00 0.00 0.00 0.00 0.00 0.00 0.00 0.00 0.00 0.00 0.00 0.00
0.02 0.02 0.01 0.00 0.00 0.00 0.00 0.00 0.00 0.00 0.00 0.00 0.00 0.00 0.00 0.00 0.00 0.00 0.00 0.00 0.00 0.00 0.00 0.00 0.00 0.00 0.00 0.00 0.00 0.00 0.00 0.00 0.00 0.00 0.00 0.00 0.00 0.00 0.00 0.00 0.00 0.00 0.00 0.00
0.02 0.02 0.00 0.00 0.00 0.00 0.01 0.00 0.00 0.00 0.02 0.00 0.00 0.00 0.00 0.00 0.00 0.00 0.00 0.00 0.00 0.00 0.00 0.00 0.00 0.00 0.00 0.00 0.00 0.00 0.00 0.00 0.00 0.00 0.00 0.00 0.00 0.00 0.00 0.00 0.00 0.00 0.00 0.00
0.02 0.01 0.00 0.00 0.00 0.00 0.00 0.00 0.00 0.00 0.01 0.00 0.00 0.00 0.00 0.00 0.00 0.00 0.00 0.00 0.00 0.00 0.00 0.00 0.00 0.00 0.00 0.00 0.00 0.00 0.00 0.00 0.00 0.00 0.02 0.02 0.00 0.00 0.00 0.00 0.00 0.00 0.00 0.00
0.01 0.00 0.00 0.00 0.00 0.00 0.00 0.00 0.00 0.00 0.00 0.00 0.00 0.00 0.00 0.00 0.00 0.00 0.00 0.00 0.00 0.00 0.00 0.02 0.01 0.00 0.00 0.00 0.00 0.00 0.00 0.00 0.00 0.00 0.02 0.01 0.00 0.00 0.00 0.03 0.04 0.00 0.00 0.01
0.00 0.00 0.00 0.00 0.00 0.00 0.00 0.00 0.00 0.00 0.00 0.00 0.00 0.00 0.00 0.00 0.01 0.00 0.00 0.00 0.00 0.00 0.00 0.01 0.00 0.00 0.00 0.00 0.00 0.00 0.00 0.00 0.00 0.02 0.03 0.01 0.00 0.00 0.03 0.02 0.01 0.01 0.01 0.01
0.00 0.00 0.00 0.00 0.00 0.00 0.00 0.00 0.00 0.00 0.00 0.00 0.00 0.00 0.00 0.00 0.00 0.00 0.00 0.00 0.00 0.00 0.00 0.00 0.00 0.00 0.00 0.00 0.00 0.00 0.00 0.00 0.00 0.02 0.01 0.00 0.00 0.01 0.01 0.01 0.01 0.00 0.01 0.06
0.00 0.00 0.00 0.00 0.00 0.00 0.00 0.00 0.00 0.00 0.00 0.00 0.00 0.00 0.00 0.00 0.00 0.00 0.00 0.00 0.00 0.00 0.01 0.01 0.01 0.01 0.00 0.00 0.00 0.00 0.02 0.00 0.00 0.01 0.00 0.00 0.00 0.00 0.00 0.00 0.01 0.08 0.14 0.17
0.00 0.00 0.00 0.00 0.00 0.00 0.00 0.00 0.00 0.00 0.00 0.03 0.00 0.00 0.00 0.00 0.00 0.00 0.00 0.00 0.01 0.02 0.02 0.04 0.05 0.06 0.04 0.03 0.01 0.02 0.03 0.02 0.01 0.02 0.00 0.01 0.01 0.02 0.07 0.15 0.24 0.19 0.12 0.10
0.00 0.00 0.00 0.00 0.00 0.00 0.00 0.00 0.00 0.00 0.00 0.02 0.00 0.00 0.00 0.00 0.00 0.00 0.00 0.00 0.01 0.01 0.03 0.04 0.02 0.01 0.02 0.05 0.08 0.11 0.05 0.02 0.02 0.02 0.02 0.09 0.18 0.28 0.37 0.30 0.13 0.06 0.04 0.03
0.00 0.01 0.01 0.01 0.00 0.00 0.00 0.00 0.00 0.00 0.00 0.01 0.01 0.00 0.00 0.00 0.00 0.00 0.00 0.00 0.01 0.01 0.01 0.01 0.01 0.00 0.03 0.09 0.06 0.01 0.00 0.00 0.03 0.03 0.06 0.13 0.29 0.33 0.19 0.12 0.08 0.02 0.00 0.00
0.01 0.02 0.02 0.02 0.03 0.02 0.02 0.01 0.00 0.00 0.00 0.02 0.04 0.01 0.00 0.00 0.00 0.00 0.00 0.00 0.00 0.02 0.03 0.03 0.01 0.01 0.12 0.21 0.08 0.01 0.00 0.01 0.03 0.02 0.04 0.13 0.18 0.14 0.11 0.03 0.00 0.00 0.00 0.00
0.04 0.06 0.11 0.19 0.31 0.21 0.11 0.05 0.07 0.04 0.02 0.04 0.06 0.04 0.00 0.00 0.00 0.00 0.00 0.00 0.00 0.01 0.02 0.01 0.00 0.01 0.05 0.10 0.01 0.00 0.00 0.00 0.00 0.01 0.02 0.04 0.02 0.00 0.00 0.00 0.00 0.00 0.00 0.00
0.23 0.36 0.55 0.58 0.43 0.24 0.19 0.25 0.29 0.38 0.30 0.23 0.13 0.03 0.02 0.03 0.02 0.02 0.00 0.00 0.01 0.00 0.01 0.01 0.00 0.01 0.02 0.01 0.00 0.00 0.00 0.00 0.00 0.00 0.00 0.00 0.00 0.00 0.00 0.00 0.00 0.00 0.00 0.00
0.73 0.75 0.76 0.75 0.51 0.46 0.27 0.36 0.56 0.76 0.74 0.54 0.23 0.09 0.09 0.04 0.03 0.03 0.05 0.07 0.06 0.03 0.00 0.00 0.02 0.02 0.00 0.00 0.00 0.00 0.00 0.00 0.00 0.00 0.00 0.01 0.02 0.02 0.00 0.00 0.00 0.00 0.00 0.00
1.66 1.27 0.98 0.65 0.62 0.40 0.44 0.48 0.45 0.45 0.31 0.19 0.12 0.06 0.06 0.04 0.07 0.14 0.16 0.11 0.05 0.06 0.01 0.02 0.03 0.01 0.00 0.00 0.00 0.00 0.00 0.00 0.00 0.00 0.00 0.01 0.00 0.00 0.00 0.00 0.00 0.00 0.00 0.00
1.42 0.93 0.77 0.85 0.71 0.59 0.65 0.69 0.45 0.16 0.07 0.03 0.02 0.02 0.05 0.12 0.14 0.19 0.31 0.18 0.13 0.07 0.01 0.07 0.06 0.01 0.00 0.00 0.00 0.00 0.00 0.00 0.00 0.00 0.00 0.00 0.00 0.00 0.00 0.00 0.00 0.00 0.00 0.00
1.25 1.35 1.47 1.31 1.38 1.06 0.71 0.31 0.13 0.05 0.02 0.00 0.01 0.04 0.06 0.09 0.12 0.28 0.28 0.26 0.18 0.06 0.07 0.04 0.01 0.00 0.00 0.00 0.00 0.00 0.00 0.00 0.00 0.00 0.00 0.00 0.00 0.00 0.00 0.00 0.00 0.00 0.00 0.00
1.24 1.62 1.78 1.33 1.19 0.73 0.38 0.10 0.03 0.02 0.02 0.01 0.02 0.06 0.08 0.11 0.17 0.29 0.34 0.38 0.19 0.19 0.10 0.03 0.04 0.03 0.01 0.00 0.00 0.00 0.00 0.00 0.00 0.00 0.00 0.00 0.00 0.00 0.00 0.00 0.00 0.00 0.00 0.00
0.40 0.52 0.72 0.68 0.50 0.28 0.16 0.11 0.06 0.06 0.07 0.09 0.13 0.20 0.18 0.20 0.33 0.35 0.27 0.23 0.19 0.16 0.20 0.23 0.13 0.01 0.00 0.00 0.00 0.00 0.00 0.00 0.00 0.00 0.00 0.00 0.00 0.00 0.00 0.00 0.00 0.00 0.00 0.00
0.07 0.17 0.28 0.28 0.25 0.27 0.21 0.18 0.16 0.18 0.22 0.22 0.24 0.25 0.27 0.29 0.24 0.18 0.20 0.21 0.23 0.30 0.12 0.03 0.00 0.00 0.00 0.00 0.00 0.00 0.00 0.00 0.00 0.00 0.00 0.00 0.00 0.00 0.00 0.00 0.00 0.00 0.00 0.00
0.00 0.02 0.05 0.08 0.09 0.11 0.12 0.14 0.16 0.15 0.16 0.13 0.11 0.12 0.16 0.16 0.16 0.15 0.14 0.19 0.13 0.03 0.01 0.00 0.00 0.00 0.00 0.00 0.00 0.00 0.00 0.00 0.00 0.00 0.00 0.00 0.00 0.00 0.00 0.00 0.00 0.00 0.00 0.00

GFSNW_prec_precacc24_039.txt.gz
Total_Precipitation_Accumulation
0.00 0.01 0.01 0.01 0.00 0.00 0.00 0.00 0.00 0.00 0.00 0.00 0.00 0.00 0.00 0.00 0.00 0.00 0.00 0.00 0.00 0.00 0.00 0.00 0.00 0.00 0.00 0.00 0.00 0.00 0.00 0.00 0.00 0.00 0.00 0.00 0.00 0.00 0.00 0.00 0.00 0.00 0.00 0.00
0.01 0.01 0.02 0.01 0.00 0.00 0.00 0.00 0.00 0.00 0.00 0.00 0.00 0.00 0.00 0.00 0.00 0.00 0.00 0.00 0.00 0.00 0.00 0.00 0.00 0.00 0.00 0.00 0.00 0.00 0.00 0.00 0.00 0.00 0.00 0.00 0.00 0.00 0.00 0.00 0.00 0.00 0.00 0.00
0.01 0.01 0.02 0.01 0.00 0.00 0.00 0.01 0.00 0.00 0.00 0.00 0.00 0.00 0.00 0.00 0.00 0.00 0.00 0.00 0.00 0.00 0.00 0.00 0.00 0.00 0.00 0.00 0.00 0.00 0.00 0.00 0.00 0.00 0.00 0.00 0.00 0.00 0.00 0.00 0.00 0.00 0.00 0.00
0.01 0.02 0.01 0.00 0.00 0.00 0.00 0.01 0.00 0.00 0.00 0.00 0.00 0.00 0.00 0.00 0.00 0.00 0.00 0.00 0.00 0.00 0.00 0.00 0.00 0.00 0.00 0.00 0.00 0.00 0.00 0.00 0.00 0.00 0.00 0.00 0.00 0.00 0.00 0.00 0.00 0.00 0.00 0.00
0.02 0.01 0.01 0.00 0.00 0.00 0.00 0.02 0.00 0.00 0.00 0.00 0.00 0.00 0.00 0.00 0.00 0.00 0.00 0.00 0.00 0.00 0.00 0.00 0.00 0.00 0.00 0.00 0.00 0.00 0.00 0.00 0.00 0.00 0.00 0.00 0.00 0.00 0.00 0.00 0.00 0.00 0.00 0.00
0.02 0.02 0.01 0.01 0.00 0.00 0.00 0.00 0.00 0.00 0.00 0.00 0.00 0.00 0.00 0.00 0.00 0.00 0.00 0.00 0.00 0.00 0.00 0.00 0.00 0.00 0.00 0.00 0.00 0.00 0.00 0.00 0.00 0.00 0.00 0.00 0.00 0.00 0.00 0.00 0.00 0.00 0.00 0.00
0.02 0.02 0.01 0.01 0.01 0.00 0.01 0.00 0.01 0.00 0.00 0.00 0.00 0.00 0.00 0.00 0.00 0.00 0.00 0.00 0.00 0.00 0.00 0.00 0.00 0.00 0.00 0.00 0.00 0.00 0.00 0.00 0.00 0.00 0.00 0.00 0.00 0.00 0.00 0.00 0.00 0.00 0.00 0.00
0.02 0.01 0.00 0.00 0.00 0.00 0.02 0.02 0.01 0.00 0.02 0.00 0.00 0.00 0.00 0.00 0.00 0.00 0.00 0.00 0.00 0.00 0.00 0.00 0.00 0.00 0.00 0.00 0.00 0.00 0.00 0.00 0.00 0.00 0.00 0.00 0.00 0.00 0.00 0.00 0.00 0.00 0.00 0.00
0.02 0.01 0.00 0.00 0.00 0.00 0.01 0.01 0.00 0.00 0.01 0.00 0.00 0.00 0.00 0.00 0.00 0.00 0.00 0.00 0.00 0.00 0.00 0.00 0.00 0.00 0.00 0.00 0.00 0.00 0.00 0.00 0.00 0.00 0.02 0.01 0.00 0.00 0.00 0.00 0.00 0.00 0.00 0.00
0.01 0.00 0.00 0.00 0.00 0.00 0.00 0.00 0.00 0.00 0.00 0.00 0.00 0.00 0.00 0.00 0.00 0.00 0.00 0.00 0.00 0.00 0.00 0.02 0.01 0.00 0.00 0.00 0.00 0.00 0.00 0.00 0.00 0.00 0.02 0.01 0.00 0.00 0.00 0.03 0.04 0.00 0.00 0.01
0.01 0.00 0.00 0.00 0.00 0.00 0.00 0.00 0.00 0.00 0.00 0.00 0.00 0.00 0.00 0.00 0.01 0.00 0.00 0.00 0.00 0.00 0.00 0.01 0.00 0.00 0.00 0.00 0.00 0.00 0.00 0.00 0.00 0.02 0.03 0.01 0.00 0.00 0.02 0.02 0.01 0.01 0.01 0.01
0.00 0.00 0.00 0.00 0.00 0.00 0.00 0.00 0.00 0.00 0.00 0.00 0.00 0.00 0.00 0.00 0.00 0.00 0.00 0.00 0.00 0.00 0.00 0.00 0.00 0.00 0.00 0.00 0.00 0.00 0.00 0.00 0.00 0.02 0.01 0.00 0.00 0.01 0.01 0.01 0.01 0.00 0.01 0.06
0.00 0.00 0.00 0.00 0.00 0.00 0.00 0.00 0.00 0.00 0.00 0.00 0.00 0.00 0.00 0.00 0.00 0.00 0.00 0.00 0.00 0.00 0.00 0.00 0.01 0.01 0.00 0.00 0.00 0.00 0.00 0.00 0.00 0.01 0.00 0.00 0.00 0.00 0.00 0.00 0.01 0.07 0.13 0.16
0.00 0.00 0.00 0.00 0.00 0.00 0.00 0.00 0.00 0.00 0.00 0.02 0.00 0.00 0.00 0.00 0.00 0.00 0.00 0.00 0.00 0.00 0.00 0.02 0.03 0.01 0.01 0.01 0.01 0.01 0.01 0.01 0.01 0.02 0.00 0.00 0.00 0.02 0.06 0.12 0.18 0.16 0.11 0.07
0.00 0.00 0.00 0.00 0.00 0.00 0.00 0.00 0.00 0.00 0.00 0.02 0.00 0.00 0.00 0.00 0.00 0.00 0.00 0.00 0.00 0.00 0.01 0.02 0.01 0.00 0.01 0.04 0.06 0.08 0.02 0.01 0.02 0.02 0.02 0.06 0.14 0.23 0.32 0.27 0.12 0.04 0.01 0.01
0.00 0.00 0.01 0.01 0.00 0.00 0.00 0.00 0.00 0.00 0.00 0.00 0.01 0.00 0.00 0.00 0.00 0.00 0.00 0.00 0.01 0.01 0.01 0.01 0.01 0.00 0.02 0.08 0.05 0.01 0.00 0.00 0.01 0.02 0.04 0.10 0.24 0.29 0.16 0.12 0.06 0.01 0.00 0.00
0.01 0.02 0.02 0.02 0.03 0.02 0.01 0.00 0.00 0.00 0.00 0.01 0.02 0.00 0.00 0.00 0.00 0.00 0.00 0.00 0.00 0.02 0.03 0.03 0.01 0.01 0.08 0.18 0.07 0.01 0.00 0.00 0.01 0.01 0.03 0.11 0.12 0.09 0.07 0.02 0.00 0.00 0.00 0.00
0.03 0.05 0.09 0.13 0.19 0.11 0.07 0.02 0.02 0.01 0.00 0.01 0.02 0.01 0.00 0.00 0.00 0.00 0.00 0.00 0.00 0.01 0.02 0.01 0.00 0.01 0.04 0.07 0.01 0.00 0.00 0.00 0.00 0.00 0.01 0.03 0.01 0.00 0.00 0.00 0.00 0.00 0.00 0.00
0.20 0.32 0.47 0.43 0.27 0.12 0.10 0.13 0.15 0.22 0.16 0.10 0.08 0.02 0.01 0.02 0.02 0.02 0.00 0.00 0.01 0.00 0.01 0.01 0.00 0.01 0.02 0.00 0.00 0.00 0.00 0.00 0.00 0.00 0.00 0.00 0.00 0.00 0.00 0.00 0.00 0.00 0.00 0.00
0.70 0.73 0.71 0.66 0.44 0.41 0.23 0.25 0.36 0.49 0.48 0.34 0.16 0.07 0.07 0.03 0.02 0.03 0.04 0.05 0.02 0.01 0.00 0.00 0.02 0.02 0.00 0.00 0.00 0.00 0.00 0.00 0.00 0.00 0.00 0.00 0.00 0.02 0.01 0.00 0.00 0.00 0.00 0.00
1.66 1.27 0.97 0.63 0.59 0.38 0.43 0.46 0.40 0.39 0.26 0.16 0.10 0.06 0.05 0.03 0.06 0.13 0.13 0.07 0.03 0.04 0.01 0.01 0.02 0.01 0.00 0.00 0.00 0.00 0.00 0.00 0.00 0.00 0.00 0.02 0.04 0.02 0.00 0.00 0.00 0.00 0.00 0.00
1.42 0.93 0.77 0.85 0.71 0.59 0.65 0.68 0.44 0.16 0.07 0.03 0.02 0.02 0.05 0.11 0.13 0.17 0.26 0.15 0.10 0.05 0.01 0.05 0.03 0.00 0.00 0.00 0.00 0.00 0.00 0.00 0.02 0.06 0.05 0.02 0.00 0.00 0.00 0.00 0.00 0.00 0.00 0.00
1.25 1.35 1.48 1.32 1.38 1.06 0.70 0.31 0.13 0.05 0.02 0.00 0.01 0.04 0.06 0.09 0.11 0.25 0.27 0.26 0.17 0.05 0.07 0.04 0.01 0.00 0.00 0.01 0.00 0.00 0.00 0.01 0.01 0.00 0.00 0.00 0.00 0.00 0.00 0.00 0.00 0.00 0.00 0.00
1.31 1.68 1.84 1.38 1.24 0.74 0.39 0.11 0.03 0.02 0.02 0.01 0.01 0.05 0.07 0.11 0.18 0.34 0.41 0.45 0.23 0.22 0.11 0.04 0.05 0.04 0.02 0.01 0.00 0.00 0.00 0.00 0.00 0.00 0.00 0.00 0.00 0.00 0.00 0.00 0.00 0.00 0.00 0.00
0.56 0.66 0.82 0.74 0.52 0.29 0.17 0.11 0.07 0.07 0.07 0.09 0.13 0.21 0.20 0.22 0.39 0.42 0.33 0.28 0.22 0.18 0.22 0.28 0.19 0.03 0.00 0.00 0.00 0.00 0.00 0.00 0.00 0.00 0.00 0.00 0.00 0.00 0.00 0.00 0.00 0.00 0.00 0.00
0.12 0.23 0.32 0.31 0.27 0.28 0.22 0.19 0.19 0.20 0.24 0.25 0.28 0.29 0.30 0.34 0.28 0.21 0.23 0.24 0.25 0.31 0.13 0.06 0.02 0.03 0.01 0.00 0.00 0.00 0.00 0.00 0.00 0.00 0.00 0.00 0.00 0.00 0.00 0.00 0.00 0.00 0.00 0.00
0.00 0.03 0.06 0.08 0.09 0.12 0.14 0.15 0.17 0.16 0.17 0.15 0.14 0.15 0.18 0.19 0.19 0.17 0.16 0.21 0.14 0.03 0.01 0.01 0.00 0.00 0.00 0.00 0.00 0.00 0.00 0.00 0.00 0.00 0.00 0.00 0.00 0.00 0.00 0.00 0.00 0.00 0.00 0.00

GFSNW_prec_precacc24_042.txt.gz
Total_Precipitation_Accumulation
0.01 0.01 0.02 0.01 0.00 0.00 0.00 0.00 0.00 0.00 0.00 0.00 0.00 0.00 0.00 0.00 0.00 0.00 0.00 0.00 0.00 0.00 0.00 0.00 0.00 0.00 0.00 0.00 0.00 0.00 0.00 0.00 0.00 0.00 0.00 0.00 0.00 0.00 0.00 0.00 0.00 0.00 0.00 0.00
0.01 0.01 0.02 0.02 0.00 0.00 0.00 0.00 0.00 0.00 0.00 0.00 0.00 0.00 0.00 0.00 0.00 0.00 0.00 0.00 0.00 0.00 0.00 0.00 0.00 0.00 0.00 0.00 0.00 0.00 0.00 0.00 0.00 0.00 0.00 0.00 0.00 0.00 0.00 0.00 0.00 0.00 0.00 0.00
0.01 0.01 0.02 0.01 0.00 0.00 0.00 0.01 0.00 0.00 0.00 0.00 0.00 0.00 0.00 0.00 0.00 0.00 0.00 0.00 0.00 0.00 0.00 0.00 0.00 0.00 0.00 0.00 0.00 0.00 0.00 0.00 0.00 0.00 0.00 0.00 0.00 0.00 0.00 0.00 0.00 0.00 0.00 0.00
0.01 0.01 0.01 0.00 0.00 0.00 0.00 0.01 0.00 0.00 0.00 0.00 0.00 0.00 0.00 0.00 0.00 0.00 0.00 0.00 0.00 0.00 0.00 0.00 0.00 0.00 0.00 0.00 0.00 0.00 0.00 0.00 0.00 0.00 0.00 0.00 0.00 0.00 0.00 0.00 0.00 0.00 0.00 0.00
0.02 0.01 0.01 0.00 0.00 0.00 0.00 0.02 0.01 0.00 0.00 0.00 0.00 0.00 0.00 0.00 0.00 0.00 0.00 0.00 0.00 0.00 0.00 0.00 0.00 0.00 0.00 0.00 0.00 0.00 0.00 0.00 0.00 0.00 0.00 0.00 0.00 0.00 0.00 0.00 0.00 0.00 0.00 0.00
0.02 0.02 0.01 0.01 0.00 0.00 0.00 0.00 0.00 0.00 0.00 0.00 0.00 0.00 0.00 0.00 0.00 0.00 0.00 0.00 0.00 0.00 0.00 0.00 0.00 0.00 0.00 0.00 0.00 0.00 0.00 0.00 0.00 0.00 0.00 0.00 0.00 0.00 0.00 0.00 0.00 0.00 0.00 0.00
0.02 0.02 0.01 0.01 0.01 0.00 0.01 0.00 0.01 0.00 0.00 0.00 0.00 0.00 0.00 0.00 0.00 0.00 0.00 0.00 0.00 0.00 0.00 0.00 0.00 0.00 0.00 0.00 0.00 0.00 0.00 0.00 0.00 0.00 0.00 0.00 0.00 0.00 0.00 0.00 0.00 0.00 0.00 0.00
0.02 0.01 0.00 0.00 0.00 0.00 0.02 0.02 0.01 0.00 0.02 0.00 0.00 0.00 0.00 0.00 0.00 0.00 0.00 0.00 0.00 0.00 0.00 0.00 0.00 0.00 0.00 0.00 0.00 0.00 0.00 0.00 0.00 0.00 0.00 0.00 0.00 0.00 0.00 0.00 0.00 0.00 0.00 0.00
0.02 0.00 0.00 0.00 0.00 0.00 0.01 0.03 0.02 0.00 0.01 0.00 0.00 0.00 0.00 0.00 0.00 0.00 0.00 0.00 0.00 0.00 0.00 0.00 0.00 0.00 0.00 0.00 0.00 0.00 0.00 0.00 0.00 0.00 0.02 0.01 0.00 0.00 0.00 0.00 0.00 0.00 0.00 0.00
0.01 0.00 0.00 0.00 0.00 0.00 0.01 0.01 0.01 0.00 0.00 0.00 0.00 0.00 0.00 0.00 0.00 0.00 0.00 0.00 0.00 0.00 0.00 0.02 0.01 0.00 0.00 0.00 0.00 0.00 0.00 0.00 0.00 0.00 0.01 0.00 0.00 0.00 0.00 0.03 0.04 0.00 0.00 0.01
0.01 0.01 0.00 0.00 0.00 0.00 0.00 0.01 0.00 0.00 0.00 0.00 0.00 0.00 0.00 0.00 0.01 0.00 0.00 0.00 0.00 0.00 0.00 0.01 0.00 0.00 0.00 0.00 0.00 0.00 0.00 0.00 0.00 0.01 0.02 0.00 0.00 0.00 0.02 0.02 0.01 0.01 0.01 0.01
0.01 0.01 0.00 0.00 0.00 0.00 0.01 0.01 0.00 0.00 0.00 0.00 0.00 0.00 0.00 0.00 0.00 0.00 0.00 0.00 0.00 0.00 0.00 0.00 0.00 0.00 0.00 0.00 0.00 0.00 0.00 0.00 0.00 0.02 0.01 0.00 0.00 0.01 0.01 0.01 0.01 0.00 0.01 0.05
0.01 0.01 0.00 0.00 0.00 0.00 0.00 0.00 0.00 0.00 0.00 0.00 0.00 0.00 0.00 0.00 0.00 0.00 0.00 0.00 0.00 0.00 0.00 0.00 0.00 0.01 0.00 0.00 0.00 0.00 0.00 0.00 0.00 0.01 0.00 0.00 0.00 0.00 0.00 0.00 0.01 0.06 0.06 0.07
0.00 0.00 0.00 0.00 0.00 0.00 0.00 0.00 0.00 0.00 0.00 0.02 0.00 0.00 0.00 0.00 0.00 0.00 0.00 0.00 0.00 0.00 0.00 0.01 0.02 0.01 0.00 0.00 0.00 0.00 0.00 0.01 0.01 0.01 0.00 0.00 0.00 0.01 0.05 0.11 0.13 0.06 0.04 0.03
0.00 0.00 0.00 0.00 0.00 0.00 0.00 0.00 0.00 0.00 0.00 0.01 0.00 0.00 0.00 0.00 0.00 0.00 0.00 0.00 0.00 0.00 0.00 0.01 0.01 0.00 0.00 0.02 0.05 0.06 0.02 0.01 0.01 0.02 0.02 0.04 0.11 0.17 0.21 0.17 0.04 0.00 0.00 0.01
0.00 0.00 0.00 0.00 0.00 0.00 0.00 0.00 0.00 0.00 0.00 0.00 0.01 0.00 0.00 0.00 0.00 0.00 0.00 0.00 0.00 0.00 0.01 0.01 0.00 0.00 0.02 0.07 0.05 0.01 0.00 0.00 0.01 0.02 0.03 0.06 0.18 0.22 0.09 0.01 0.00 0.00 0.00 0.00
0.01 0.02 0.01 0.01 0.01 0.01 0.01 0.00 0.00 0.00 0.00 0.01 0.02 0.00 0.00 0.00 0.00 0.00 0.00 0.00 0.00 0.01 0.02 0.02 0.01 0.01 0.07 0.16 0.06 0.01 0.00 0.00 0.00 0.00 0.02 0.10 0.11 0.04 0.00 0.00 0.00 0.00 0.00 0.00
0.02 0.03 0.06 0.10 0.10 0.04 0.04 0.01 0.01 0.00 0.00 0.01 0.01 0.01 0.00 0.00 0.00 0.00 0.00 0.00 0.00 0.01 0.02 0.01 0.00 0.01 0.03 0.06 0.01 0.00 0.00 0.00 0.00 0.00 0.01 0.03 0.01 0.00 0.00 0.00 0.00 0.00 0.00 0.00
0.07 0.15 0.27 0.21 0.11 0.05 0.05 0.05 0.09 0.11 0.08 0.05 0.04 0.01 0.00 0.00 0.00 0.00 0.00 0.00 0.01 0.00 0.01 0.01 0.00 0.00 0.01 0.00 0.00 0.00 0.00 0.00 0.00 0.00 0.00 0.00 0.00 0.00 0.00 0.00 0.01 0.01 0.01 0.00
0.42 0.45 0.43 0.39 0.24 0.27 0.12 0.12 0.21 0.26 0.22 0.17 0.08 0.02 0.02 0.01 0.01 0.01 0.02 0.02 0.01 0.01 0.00 0.00 0.01 0.02 0.00 0.00 0.00 0.00 0.00 0.00 0.00 0.00 0.00 0.00 0.01 0.04 0.05 0.04 0.01 0.00 0.00 0.00
1.54 1.07 0.73 0.44 0.46 0.24 0.25 0.34 0.30 0.29 0.17 0.11 0.07 0.04 0.03 0.02 0.05 0.11 0.10 0.05 0.02 0.02 0.01 0.01 0.02 0.01 0.00 0.00 0.00 0.00 0.00 0.00 0.00 0.00 0.00 0.05 0.10 0.06 0.01 0.00 0.00 0.00 0.00 0.00
1.39 0.87 0.65 0.71 0.63 0.56 0.62 0.66 0.42 0.15 0.06 0.03 0.02 0.02 0.04 0.10 0.12 0.16 0.19 0.12 0.08 0.04 0.01 0.04 0.02 0.00 0.00 0.00 0.00 0.00 0.00 0.00 0.03 0.07 0.08 0.04 0.00 0.00 0.00 0.00 0.00 0.00 0.00 0.00
1.25 1.35 1.47 1.31 1.38 1.05 0.70 0.31 0.13 0.05 0.02 0.00 0.01 0.04 0.06 0.08 0.10 0.21 0.24 0.25 0.17 0.04 0.06 0.04 0.02 0.00 0.00 0.01 0.02 0.02 0.02 0.02 0.02 0.00 0.00 0.00 0.00 0.00 0.00 0.00 0.00 0.00 0.00 0.00
1.31 1.68 1.84 1.39 1.24 0.75 0.39 0.11 0.03 0.02 0.02 0.01 0.01 0.04 0.07 0.11 0.18 0.35 0.43 0.48 0.24 0.24 0.12 0.05 0.07 0.07 0.04 0.03 0.02 0.00 0.00 0.00 0.00 0.00 0.00 0.00 0.00 0.00 0.00 0.00 0.00 0.00 0.00 0.00
0.58 0.67 0.83 0.75 0.52 0.29 0.17 0.11 0.07 0.07 0.07 0.09 0.12 0.21 0.20 0.23 0.43 0.47 0.38 0.32 0.24 0.19 0.23 0.30 0.25 0.06 0.00 0.00 0.00 0.00 0.00 0.00 0.00 0.00 0.00 0.00 0.00 0.00 0.00 0.00 0.00 0.00 0.00 0.00
0.19 0.28 0.33 0.32 0.27 0.29 0.23 0.21 0.20 0.21 0.26 0.27 0.31 0.32 0.33 0.39 0.30 0.23 0.25 0.26 0.26 0.32 0.15 0.09 0.05 0.05 0.01 0.00 0.00 0.00 0.00 0.00 0.00 0.00 0.00 0.00 0.00 0.00 0.00 0.00 0.00 0.00 0.00 0.00
0.06 0.07 0.09 0.10 0.11 0.14 0.16 0.17 0.19 0.18 0.19 0.18 0.16 0.16 0.19 0.20 0.20 0.18 0.17 0.22 0.14 0.04 0.01 0.01 0.00 0.00 0.00 0.00 0.00 0.01 0.00 0.00 0.00 0.00 0.00 0.00 0.00 0.00 0.00 0.00 0.00 0.00 0.00 0.00

GFSNW_prec_precacc24_045.txt.gz
Total_Precipitation_Accumulation
0.02 0.01 0.02 0.02 0.01 0.00 0.00 0.00 0.00 0.00 0.00 0.00 0.00 0.00 0.00 0.00 0.00 0.00 0.00 0.00 0.00 0.00 0.00 0.00 0.00 0.00 0.00 0.00 0.00 0.00 0.00 0.00 0.00 0.00 0.00 0.00 0.00 0.00 0.00 0.00 0.00 0.00 0.00 0.00
0.03 0.01 0.02 0.02 0.00 0.00 0.00 0.00 0.02 0.04 0.00 0.00 0.00 0.00 0.00 0.00 0.00 0.00 0.00 0.00 0.00 0.00 0.00 0.00 0.00 0.00 0.00 0.00 0.00 0.00 0.00 0.00 0.00 0.00 0.00 0.00 0.00 0.00 0.00 0.00 0.00 0.00 0.00 0.00
0.02 0.01 0.02 0.01 0.00 0.00 0.00 0.01 0.00 0.01 0.00 0.00 0.00 0.00 0.00 0.00 0.00 0.00 0.00 0.00 0.00 0.00 0.00 0.00 0.00 0.00 0.00 0.00 0.00 0.00 0.00 0.00 0.00 0.00 0.00 0.00 0.00 0.00 0.00 0.00 0.00 0.00 0.00 0.00
0.01 0.01 0.02 0.01 0.00 0.00 0.01 0.01 0.00 0.00 0.00 0.00 0.00 0.00 0.00 0.00 0.00 0.00 0.00 0.00 0.00 0.00 0.00 0.00 0.00 0.00 0.00 0.00 0.00 0.00 0.00 0.00 0.00 0.00 0.00 0.00 0.00 0.00 0.00 0.00 0.00 0.00 0.00 0.00
0.02 0.01 0.02 0.01 0.00 0.00 0.02 0.02 0.01 0.00 0.00 0.00 0.00 0.00 0.00 0.00 0.00 0.00 0.00 0.00 0.00 0.00 0.00 0.00 0.00 0.00 0.00 0.00 0.00 0.00 0.00 0.00 0.00 0.00 0.00 0.00 0.00 0.00 0.00 0.00 0.00 0.00 0.00 0.00
0.02 0.02 0.02 0.02 0.00 0.00 0.01 0.01 0.00 0.00 0.00 0.00 0.00 0.00 0.00 0.00 0.00 0.00 0.00 0.00 0.00 0.00 0.00 0.00 0.00 0.00 0.00 0.00 0.00 0.00 0.00 0.00 0.00 0.00 0.00 0.00 0.00 0.00 0.00 0.00 0.00 0.00 0.00 0.00
0.02 0.02 0.02 0.01 0.01 0.00 0.01 0.00 0.01 0.00 0.00 0.00 0.00 0.00 0.00 0.00 0.00 0.00 0.00 0.00 0.00 0.00 0.00 0.00 0.00 0.00 0.00 0.00 0.00 0.00 0.00 0.00 0.00 0.00 0.00 0.00 0.00 0.00 0.00 0.00 0.00 0.00 0.00 0.00
0.02 0.01 0.01 0.00 0.00 0.00 0.03 0.02 0.02 0.00 0.02 0.00 0.00 0.00 0.00 0.00 0.00 0.00 0.00 0.00 0.00 0.00 0.00 0.00 0.00 0.00 0.00 0.00 0.00 0.00 0.00 0.00 0.00 0.00 0.00 0.00 0.00 0.00 0.00 0.00 0.00 0.00 0.00 0.00
0.02 0.01 0.00 0.00 0.00 0.00 0.03 0.03 0.02 0.00 0.01 0.00 0.00 0.00 0.00 0.00 0.00 0.00 0.00 0.00 0.00 0.00 0.00 0.00 0.00 0.00 0.00 0.00 0.00 0.00 0.00 0.00 0.00 0.00 0.01 0.00 0.00 0.00 0.00 0.00 0.00 0.00 0.00 0.00
0.01 0.01 0.00 0.00 0.00 0.00 0.02 0.01 0.02 0.00 0.00 0.00 0.00 0.00 0.00 0.00 0.00 0.00 0.00 0.00 0.00 0.00 0.00 0.02 0.01 0.00 0.00 0.00 0.00 0.00 0.00 0.00 0.00 0.00 0.01 0.00 0.00 0.00 0.00 0.03 0.03 0.00 0.00 0.01
0.01 0.01 0.00 0.00 0.00 0.00 0.00 0.02 0.02 0.01 0.00 0.00 0.00 0.00 0.00 0.00 0.01 0.00 0.00 0.00 0.00 0.00 0.00 0.01 0.00 0.00 0.00 0.00 0.00 0.00 0.00 0.00 0.00 0.01 0.01 0.00 0.00 0.00 0.02 0.02 0.01 0.01 0.01 0.01
0.02 0.02 0.00 0.00 0.00 0.00 0.01 0.03 0.04 0.02 0.02 0.00 0.00 0.00 0.00 0.00 0.00 0.00 0.00 0.00 0.00 0.00 0.00 0.00 0.00 0.00 0.00 0.00 0.00 0.00 0.00 0.00 0.00 0.01 0.00 0.00 0.00 0.01 0.01 0.01 0.01 0.00 0.01 0.03
0.02 0.01 0.00 0.00 0.00 0.00 0.01 0.01 0.06 0.03 0.03 0.01 0.00 0.00 0.00 0.00 0.00 0.00 0.00 0.00 0.00 0.00 0.00 0.00 0.00 0.01 0.00 0.00 0.00 0.00 0.00 0.00 0.00 0.00 0.00 0.00 0.00 0.00 0.00 0.00 0.01 0.02 0.01 0.00
0.03 0.00 0.00 0.01 0.00 0.00 0.01 0.01 0.03 0.04 0.02 0.05 0.01 0.00 0.00 0.00 0.00 0.00 0.00 0.00 0.00 0.00 0.00 0.00 0.01 0.01 0.00 0.00 0.00 0.00 0.00 0.00 0.00 0.01 0.00 0.00 0.00 0.01 0.03 0.04 0.04 0.02 0.00 0.00
0.03 0.02 0.01 0.01 0.01 0.00 0.01 0.00 0.00 0.01 0.00 0.02 0.01 0.01 0.00 0.00 0.00 0.00 0.00 0.00 0.00 0.00 0.00 0.01 0.01 0.00 0.00 0.00 0.00 0.00 0.00 0.00 0.01 0.01 0.01 0.03 0.10 0.12 0.09 0.05 0.01 0.00 0.00 0.00
0.01 0.01 0.01 0.00 0.01 0.01 0.00 0.00 0.00 0.00 0.00 0.00 0.01 0.01 0.00 0.01 0.00 0.00 0.00 0.00 0.00 0.00 0.01 0.00 0.00 0.00 0.01 0.01 0.01 0.00 0.00 0.00 0.00 0.01 0.02 0.03 0.08 0.06 0.02 0.01 0.00 0.00 0.00 0.00
0.00 0.00 0.00 0.00 0.00 0.00 0.01 0.00 0.00 0.00 0.00 0.01 0.02 0.00 0.00 0.00 0.00 0.00 0.00 0.00 0.00 0.01 0.02 0.01 0.00 0.00 0.02 0.05 0.03 0.01 0.00 0.00 0.00 0.00 0.01 0.05 0.04 0.01 0.00 0.00 0.00 0.00 0.00 0.00
0.00 0.00 0.02 0.04 0.03 0.01 0.02 0.00 0.00 0.00 0.00 0.01 0.01 0.01 0.00 0.00 0.00 0.00 0.00 0.00 0.00 0.01 0.02 0.01 0.00 0.01 0.02 0.03 0.00 0.00 0.00 0.00 0.00 0.00 0.01 0.01 0.00 0.00 0.00 0.00 0.00 0.00 0.01 0.02
0.02 0.09 0.15 0.10 0.05 0.02 0.03 0.01 0.00 0.01 0.02 0.03 0.02 0.00 0.00 0.00 0.00 0.00 0.00 0.00 0.01 0.00 0.01 0.01 0.00 0.00 0.00 0.00 0.00 0.00 0.00 0.00 0.00 0.00 0.00 0.00 0.00 0.00 0.00 0.00 0.02 0.04 0.04 0.00
0.19 0.21 0.19 0.14 0.09 0.15 0.06 0.05 0.09 0.09 0.06 0.06 0.04 0.00 0.00 0.00 0.00 0.00 0.00 0.01 0.01 0.00 0.00 0.00 0.01 0.02 0.00 0.00 0.00 0.00 0.00 0.00 0.00 0.00 0.00 0.00 0.01 0.04 0.06 0.06 0.03 0.00 0.00 0.00
1.23 0.72 0.41 0.21 0.25 0.09 0.13 0.20 0.19 0.16 0.07 0.04 0.03 0.01 0.01 0.00 0.00 0.03 0.06 0.03 0.02 0.02 0.01 0.01 0.01 0.01 0.00 0.00 0.00 0.00 0.00 0.00 0.00 0.00 0.00 0.05 0.11 0.06 0.01 0.00 0.00 0.00 0.00 0.00
1.13 0.67 0.39 0.39 0.34 0.36 0.46 0.50 0.32 0.11 0.03 0.01 0.01 0.02 0.02 0.05 0.08 0.12 0.15 0.08 0.05 0.03 0.01 0.03 0.01 0.00 0.00 0.00 0.00 0.00 0.00 0.00 0.03 0.07 0.08 0.04 0.00 0.00 0.00 0.00 0.00 0.00 0.00 0.00
1.13 1.20 1.24 1.11 1.25 1.00 0.68 0.29 0.12 0.05 0.02 0.00 0.00 0.03 0.05 0.08 0.10 0.17 0.19 0.21 0.15 0.03 0.06 0.04 0.02 0.00 0.00 0.01 0.02 0.02 0.02 0.02 0.02 0.00 0.00 0.00 0.00 0.00 0.00 0.00 0.00 0.00 0.00 0.00
1.27 1.65 1.76 1.34 1.20 0.74 0.39 0.11 0.03 0.02 0.02 0.01 0.01 0.04 0.07 0.11 0.16 0.33 0.42 0.47 0.24 0.24 0.13 0.06 0.09 0.09 0.07 0.04 0.02 0.00 0.00 0.00 0.00 0.00 0.00 0.00 0.00 0.00 0.00 0.00 0.00 0.00 0.00 0.00
0.58 0.67 0.83 0.74 0.51 0.29 0.17 0.11 0.07 0.07 0.08 0.09 0.12 0.20 0.20 0.23 0.43 0.48 0.39 0.35 0.25 0.20 0.24 0.31 0.29 0.08 0.00 0.00 0.00 0.00 0.00 0.00 0.00 0.00 0.00 0.00 0.00 0.00 0.00 0.00 0.00 0.00 0.00 0.00
0.21 0.30 0.34 0.32 0.27 0.29 0.23 0.22 0.20 0.21 0.26 0.28 0.32 0.33 0.35 0.41 0.31 0.23 0.26 0.26 0.26 0.32 0.15 0.11 0.07 0.06 0.01 0.00 0.00 0.00 0.00 0.00 0.00 0.00 0.00 0.00 0.00 0.00 0.00 0.00 0.00 0.00 0.00 0.00
0.14 0.11 0.11 0.11 0.12 0.15 0.17 0.19 0.21 0.20 0.21 0.20 0.19 0.16 0.20 0.21 0.20 0.18 0.17 0.22 0.14 0.04 0.02 0.04 0.04 0.02 0.00 0.00 0.00 0.01 0.00 0.00 0.00 0.00 0.00 0.00 0.00 0.00 0.00 0.00 0.00 0.00 0.00 0.00

GFSNW_prec_precacc24_048.txt.gz
Total_Precipitation_Accumulation
0.13 0.10 0.05 0.02 0.01 0.01 0.00 0.00 0.00 0.01 0.01 0.01 0.00 0.00 0.00 0.00 0.00 0.00 0.00 0.00 0.00 0.00 0.00 0.00 0.00 0.00 0.00 0.00 0.00 0.00 0.00 0.00 0.00 0.00 0.00 0.00 0.00 0.00 0.00 0.00 0.00 0.00 0.00 0.00
0.20 0.16 0.11 0.02 0.01 0.00 0.00 0.00 0.03 0.09 0.01 0.00 0.00 0.00 0.00 0.00 0.00 0.00 0.00 0.00 0.00 0.00 0.00 0.00 0.00 0.00 0.00 0.00 0.00 0.00 0.00 0.00 0.00 0.00 0.00 0.00 0.00 0.00 0.00 0.00 0.00 0.00 0.00 0.00
0.24 0.18 0.13 0.01 0.00 0.00 0.00 0.01 0.03 0.04 0.01 0.00 0.00 0.00 0.00 0.00 0.00 0.00 0.00 0.00 0.00 0.00 0.00 0.00 0.00 0.00 0.00 0.00 0.00 0.00 0.00 0.00 0.00 0.00 0.00 0.00 0.00 0.00 0.00 0.00 0.00 0.00 0.00 0.00
0.26 0.16 0.09 0.01 0.00 0.00 0.01 0.02 0.00 0.00 0.00 0.00 0.00 0.00 0.00 0.00 0.00 0.00 0.00 0.00 0.00 0.00 0.00 0.00 0.00 0.00 0.00 0.00 0.00 0.00 0.00 0.00 0.00 0.00 0.00 0.00 0.00 0.00 0.00 0.00 0.00 0.00 0.00 0.00
0.23 0.13 0.05 0.01 0.00 0.00 0.03 0.03 0.01 0.00 0.00 0.00 0.00 0.00 0.00 0.00 0.00 0.00 0.00 0.00 0.00 0.00 0.00 0.00 0.00 0.00 0.00 0.00 0.00 0.00 0.00 0.00 0.00 0.00 0.00 0.00 0.00 0.00 0.00 0.00 0.00 0.00 0.00 0.00
0.16 0.07 0.03 0.02 0.01 0.00 0.02 0.02 0.00 0.00 0.00 0.00 0.00 0.00 0.00 0.00 0.00 0.00 0.00 0.00 0.00 0.00 0.00 0.00 0.00 0.00 0.00 0.00 0.00 0.00 0.00 0.00 0.00 0.00 0.00 0.00 0.00 0.00 0.00 0.00 0.00 0.00 0.00 0.00
0.09 0.04 0.02 0.02 0.01 0.00 0.01 0.01 0.01 0.00 0.00 0.00 0.00 0.00 0.00 0.00 0.00 0.00 0.00 0.00 0.00 0.00 0.00 0.00 0.00 0.00 0.00 0.00 0.00 0.00 0.00 0.00 0.00 0.00 0.00 0.00 0.00 0.00 0.00 0.00 0.00 0.00 0.00 0.00
0.04 0.02 0.01 0.01 0.00 0.00 0.03 0.03 0.02 0.00 0.02 0.00 0.00 0.00 0.00 0.00 0.00 0.00 0.00 0.00 0.00 0.00 0.00 0.00 0.00 0.00 0.00 0.00 0.00 0.00 0.00 0.00 0.00 0.00 0.00 0.00 0.00 0.00 0.00 0.00 0.00 0.00 0.00 0.00
0.02 0.01 0.00 0.00 0.00 0.00 0.06 0.06 0.03 0.00 0.01 0.00 0.00 0.00 0.00 0.00 0.00 0.00 0.00 0.00 0.00 0.00 0.00 0.00 0.00 0.00 0.00 0.00 0.00 0.00 0.00 0.00 0.00 0.00 0.00 0.00 0.00 0.00 0.00 0.00 0.00 0.00 0.00 0.00
0.01 0.01 0.00 0.00 0.00 0.01 0.07 0.05 0.04 0.00 0.00 0.00 0.00 0.00 0.00 0.00 0.00 0.00 0.00 0.00 0.00 0.00 0.00 0.02 0.01 0.00 0.00 0.00 0.00 0.00 0.00 0.00 0.00 0.00 0.01 0.00 0.00 0.00 0.00 0.01 0.02 0.00 0.00 0.00
0.01 0.01 0.01 0.00 0.00 0.02 0.06 0.07 0.05 0.01 0.00 0.00 0.00 0.00 0.00 0.00 0.01 0.00 0.00 0.00 0.00 0.00 0.01 0.01 0.00 0.00 0.00 0.00 0.00 0.00 0.00 0.00 0.00 0.00 0.00 0.00 0.00 0.00 0.02 0.01 0.01 0.01 0.01 0.01
0.02 0.02 0.01 0.00 0.00 0.02 0.08 0.07 0.08 0.03 0.03 0.00 0.00 0.00 0.00 0.00 0.00 0.00 0.00 0.00 0.00 0.00 0.00 0.00 0.00 0.00 0.00 0.00 0.00 0.00 0.00 0.00 0.00 0.00 0.00 0.00 0.00 0.01 0.01 0.01 0.01 0.00 0.00 0.01
0.02 0.02 0.00 0.00 0.00 0.03 0.05 0.03 0.07 0.03 0.06 0.01 0.00 0.00 0.00 0.00 0.00 0.00 0.00 0.00 0.00 0.00 0.00 0.00 0.00 0.01 0.00 0.00 0.00 0.00 0.00 0.00 0.00 0.00 0.00 0.00 0.00 0.00 0.00 0.00 0.00 0.00 0.00 0.00
0.03 0.00 0.00 0.01 0.00 0.01 0.03 0.02 0.04 0.07 0.11 0.09 0.01 0.00 0.00 0.00 0.00 0.00 0.00 0.00 0.00 0.00 0.00 0.00 0.01 0.01 0.00 0.00 0.00 0.00 0.00 0.00 0.00 0.01 0.00 0.00 0.00 0.01 0.02 0.01 0.00 0.00 0.00 0.00
0.06 0.03 0.02 0.01 0.02 0.02 0.03 0.01 0.02 0.04 0.04 0.05 0.04 0.02 0.00 0.00 0.00 0.00 0.00 0.00 0.00 0.00 0.00 0.01 0.01 0.00 0.00 0.00 0.00 0.00 0.00 0.00 0.01 0.01 0.01 0.02 0.08 0.08 0.03 0.00 0.00 0.00 0.00 0.00
0.05 0.02 0.02 0.03 0.05 0.03 0.02 0.00 0.00 0.01 0.01 0.03 0.06 0.03 0.02 0.01 0.01 0.00 0.00 0.00 0.00 0.00 0.01 0.00 0.00 0.00 0.01 0.00 0.00 0.00 0.00 0.00 0.00 0.01 0.01 0.02 0.03 0.02 0.00 0.00 0.00 0.00 0.00 0.00
0.04 0.02 0.03 0.06 0.11 0.05 0.01 0.00 0.00 0.01 0.00 0.01 0.04 0.04 0.03 0.02 0.02 0.01 0.01 0.00 0.00 0.01 0.02 0.01 0.00 0.00 0.01 0.01 0.00 0.00 0.00 0.00 0.00 0.00 0.00 0.01 0.01 0.00 0.00 0.00 0.00 0.00 0.00 0.00
0.05 0.06 0.06 0.05 0.06 0.03 0.02 0.00 0.00 0.00 0.00 0.00 0.01 0.01 0.01 0.01 0.01 0.01 0.00 0.00 0.00 0.01 0.02 0.01 0.00 0.01 0.01 0.01 0.00 0.00 0.00 0.00 0.00 0.00 0.00 0.00 0.00 0.00 0.00 0.00 0.00 0.00 0.01 0.04
0.01 0.03 0.07 0.05 0.03 0.02 0.01 0.00 0.00 0.00 0.01 0.02 0.02 0.00 0.00 0.00 0.00 0.00 0.00 0.00 0.01 0.00 0.01 0.01 0.00 0.00 0.00 0.00 0.00 0.00 0.00 0.00 0.00 0.00 0.00 0.00 0.00 0.00 0.00 0.00 0.02 0.05 0.04 0.00
0.09 0.06 0.08 0.06 0.04 0.08 0.03 0.01 0.02 0.01 0.00 0.00 0.01 0.00 0.00 0.00 0.00 0.00 0.00 0.00 0.01 0.01 0.00 0.00 0.01 0.01 0.00 0.00 0.00 0.00 0.00 0.00 0.00 0.00 0.00 0.00 0.01 0.04 0.06 0.06 0.03 0.00 0.00 0.00
0.78 0.41 0.18 0.10 0.15 0.04 0.06 0.06 0.05 0.04 0.02 0.01 0.00 0.00 0.00 0.00 0.00 0.00 0.00 0.01 0.00 0.01 0.00 0.00 0.01 0.00 0.00 0.00 0.00 0.00 0.00 0.00 0.00 0.00 0.00 0.05 0.11 0.06 0.01 0.00 0.00 0.00 0.00 0.00
0.68 0.44 0.22 0.22 0.22 0.24 0.27 0.27 0.14 0.03 0.01 0.01 0.01 0.01 0.00 0.01 0.02 0.05 0.09 0.06 0.04 0.02 0.00 0.02 0.01 0.00 0.00 0.00 0.00 0.00 0.00 0.00 0.03 0.07 0.08 0.04 0.00 0.00 0.00 0.00 0.00 0.00 0.00 0.00
0.80 0.85 0.85 0.76 0.96 0.79 0.54 0.21 0.07 0.02 0.01 0.00 0.00 0.02 0.03 0.06 0.08 0.16 0.17 0.19 0.13 0.03 0.05 0.04 0.02 0.00 0.00 0.01 0.02 0.02 0.02 0.02 0.02 0.00 0.00 0.00 0.00 0.00 0.00 0.00 0.00 0.00 0.00 0.00
1.09 1.40 1.49 1.14 1.05 0.64 0.35 0.10 0.03 0.02 0.01 0.00 0.01 0.04 0.07 0.11 0.15 0.31 0.40 0.46 0.23 0.24 0.13 0.07 0.09 0.09 0.07 0.04 0.02 0.00 0.00 0.00 0.00 0.00 0.00 0.00 0.00 0.00 0.00 0.00 0.00 0.00 0.00 0.00
0.59 0.66 0.78 0.68 0.43 0.24 0.14 0.09 0.06 0.06 0.08 0.09 0.12 0.20 0.20 0.22 0.42 0.48 0.39 0.34 0.26 0.20 0.24 0.31 0.29 0.09 0.01 0.00 0.00 0.00 0.00 0.00 0.00 0.00 0.00 0.00 0.00 0.00 0.00 0.00 0.00 0.00 0.00 0.00
0.22 0.30 0.33 0.30 0.26 0.27 0.23 0.21 0.20 0.21 0.26 0.28 0.32 0.33 0.35 0.41 0.31 0.23 0.26 0.27 0.26 0.32 0.15 0.12 0.09 0.08 0.02 0.00 0.00 0.00 0.00 0.00 0.00 0.00 0.00 0.00 0.00 0.00 0.00 0.00 0.00 0.00 0.00 0.00
0.18 0.12 0.11 0.11 0.12 0.15 0.17 0.19 0.22 0.21 0.22 0.22 0.21 0.18 0.21 0.23 0.21 0.18 0.17 0.22 0.14 0.04 0.03 0.07 0.05 0.03 0.00 0.00 0.00 0.01 0.00 0.00 0.00 0.00 0.00 0.00 0.00 0.00 0.00 0.00 0.00 0.00 0.00 0.00

GFSNW_prec_precacc24_054.txt.gz
Total_Precipitation_Accumulation
0.15 0.12 0.10 0.12 0.10 0.10 0.09 0.00 0.01 0.03 0.01 0.01 0.00 0.00 0.00 0.00 0.00 0.00 0.00 0.00 0.00 0.00 0.00 0.00 0.00 0.00 0.00 0.00 0.00 0.00 0.00 0.00 0.00 0.00 0.00 0.00 0.00 0.00 0.00 0.00 0.00 0.00 0.00 0.00
0.21 0.21 0.19 0.17 0.13 0.14 0.05 0.01 0.09 0.20 0.04 0.01 0.01 0.00 0.00 0.00 0.00 0.00 0.00 0.00 0.00 0.00 0.00 0.00 0.00 0.00 0.00 0.00 0.00 0.00 0.00 0.00 0.00 0.00 0.00 0.00 0.00 0.00 0.00 0.00 0.00 0.00 0.00 0.00
0.25 0.23 0.31 0.18 0.13 0.15 0.05 0.01 0.12 0.14 0.08 0.00 0.00 0.00 0.00 0.00 0.00 0.00 0.00 0.00 0.00 0.00 0.00 0.00 0.00 0.00 0.00 0.00 0.00 0.00 0.00 0.00 0.00 0.00 0.00 0.00 0.00 0.00 0.00 0.00 0.00 0.00 0.00 0.00
0.28 0.22 0.31 0.20 0.15 0.19 0.08 0.05 0.00 0.02 0.03 0.00 0.01 0.00 0.00 0.00 0.00 0.00 0.00 0.00 0.00 0.00 0.00 0.00 0.00 0.00 0.00 0.00 0.00 0.00 0.00 0.00 0.00 0.00 0.00 0.00 0.00 0.00 0.00 0.00 0.00 0.00 0.00 0.00
0.27 0.21 0.31 0.21 0.20 0.26 0.13 0.06 0.01 0.00 0.00 0.00 0.00 0.00 0.00 0.00 0.00 0.00 0.00 0.00 0.00 0.00 0.00 0.00 0.00 0.00 0.00 0.00 0.00 0.00 0.00 0.00 0.00 0.00 0.00 0.00 0.00 0.00 0.00 0.00 0.00 0.00 0.00 0.00
0.25 0.17 0.29 0.25 0.28 0.36 0.09 0.07 0.02 0.00 0.01 0.00 0.00 0.00 0.00 0.00 0.00 0.00 0.00 0.00 0.00 0.00 0.00 0.00 0.00 0.00 0.00 0.00 0.00 0.00 0.00 0.00 0.00 0.00 0.00 0.00 0.00 0.00 0.00 0.00 0.00 0.00 0.00 0.00
0.22 0.15 0.21 0.29 0.32 0.26 0.04 0.04 0.06 0.07 0.04 0.00 0.00 0.00 0.00 0.00 0.00 0.00 0.00 0.00 0.00 0.00 0.00 0.00 0.00 0.00 0.00 0.00 0.00 0.00 0.00 0.00 0.00 0.00 0.00 0.00 0.00 0.00 0.00 0.00 0.00 0.00 0.00 0.00
0.17 0.12 0.15 0.24 0.25 0.13 0.08 0.14 0.15 0.08 0.03 0.00 0.00 0.00 0.00 0.00 0.00 0.00 0.00 0.00 0.00 0.00 0.00 0.00 0.00 0.00 0.00 0.00 0.00 0.00 0.00 0.00 0.00 0.00 0.00 0.00 0.00 0.00 0.00 0.00 0.00 0.00 0.00 0.00
0.14 0.09 0.12 0.15 0.14 0.07 0.11 0.17 0.16 0.18 0.05 0.01 0.00 0.00 0.00 0.00 0.00 0.01 0.03 0.01 0.00 0.00 0.00 0.00 0.00 0.00 0.00 0.00 0.00 0.00 0.00 0.00 0.00 0.00 0.00 0.00 0.00 0.00 0.00 0.00 0.00 0.00 0.00 0.00
0.12 0.07 0.09 0.09 0.06 0.03 0.12 0.15 0.18 0.19 0.12 0.00 0.00 0.00 0.00 0.00 0.00 0.01 0.00 0.00 0.00 0.00 0.00 0.03 0.01 0.00 0.00 0.00 0.00 0.00 0.00 0.00 0.00 0.00 0.00 0.00 0.00 0.00 0.00 0.00 0.00 0.00 0.00 0.00
0.10 0.06 0.07 0.05 0.03 0.02 0.11 0.16 0.15 0.16 0.18 0.01 0.00 0.00 0.00 0.00 0.01 0.01 0.00 0.00 0.00 0.00 0.01 0.03 0.01 0.00 0.00 0.00 0.00 0.00 0.00 0.00 0.00 0.00 0.00 0.00 0.00 0.00 0.00 0.00 0.00 0.00 0.00 0.00
0.11 0.07 0.06 0.04 0.02 0.03 0.14 0.19 0.17 0.13 0.27 0.05 0.00 0.00 0.00 0.00 0.00 0.00 0.00 0.00 0.00 0.00 0.00 0.01 0.01 0.00 0.00 0.00 0.00 0.00 0.00 0.00 0.00 0.00 0.00 0.00 0.00 0.00 0.00 0.00 0.00 0.00 0.00 0.00
0.10 0.06 0.06 0.03 0.01 0.05 0.13 0.16 0.20 0.24 0.24 0.07 0.01 0.00 0.00 0.00 0.00 0.01 0.00 0.00 0.00 0.00 0.00 0.00 0.00 0.01 0.00 0.00 0.00 0.00 0.00 0.00 0.00 0.00 0.00 0.00 0.00 0.00 0.00 0.00 0.00 0.00 0.00 0.00
0.09 0.05 0.05 0.03 0.01 0.06 0.17 0.14 0.18 0.27 0.24 0.18 0.03 0.00 0.00 0.00 0.00 0.00 0.00 0.00 0.00 0.00 0.00 0.00 0.01 0.01 0.00 0.00 0.00 0.00 0.00 0.00 0.00 0.00 0.00 0.00 0.00 0.00 0.00 0.00 0.00 0.00 0.00 0.00
0.10 0.07 0.04 0.03 0.03 0.07 0.17 0.16 0.18 0.26 0.18 0.11 0.06 0.02 0.00 0.00 0.00 0.00 0.00 0.00 0.00 0.00 0.00 0.01 0.01 0.00 0.00 0.00 0.00 0.00 0.00 0.00 0.00 0.00 0.00 0.00 0.00 0.00 0.00 0.00 0.00 0.00 0.00 0.00
0.09 0.05 0.03 0.05 0.09 0.11 0.15 0.15 0.08 0.09 0.07 0.05 0.07 0.04 0.03 0.01 0.01 0.00 0.00 0.00 0.00 0.00 0.00 0.00 0.00 0.00 0.00 0.00 0.00 0.00 0.00 0.00 0.00 0.00 0.00 0.00 0.00 0.00 0.00 0.00 0.00 0.00 0.00 0.00
0.08 0.03 0.05 0.09 0.16 0.16 0.15 0.09 0.04 0.03 0.02 0.11 0.11 0.09 0.05 0.03 0.02 0.01 0.01 0.00 0.00 0.00 0.00 0.00 0.00 0.00 0.00 0.00 0.00 0.00 0.00 0.00 0.00 0.00 0.00 0.00 0.00 0.00 0.00 0.00 0.00 0.00 0.00 0.00
0.11 0.09 0.09 0.10 0.16 0.14 0.12 0.06 0.04 0.02 0.00 0.07 0.19 0.04 0.05 0.03 0.03 0.02 0.01 0.01 0.01 0.00 0.00 0.00 0.00 0.00 0.00 0.00 0.00 0.00 0.00 0.00 0.00 0.00 0.00 0.00 0.00 0.00 0.00 0.00 0.00 0.00 0.01 0.04
0.10 0.08 0.07 0.08 0.17 0.16 0.13 0.03 0.02 0.01 0.00 0.02 0.14 0.17 0.04 0.02 0.04 0.04 0.03 0.02 0.02 0.01 0.01 0.01 0.00 0.00 0.00 0.00 0.00 0.00 0.00 0.00 0.00 0.00 0.00 0.00 0.00 0.00 0.00 0.00 0.02 0.05 0.04 0.00
0.05 0.04 0.07 0.16 0.24 0.13 0.06 0.01 0.01 0.01 0.00 0.00 0.01 0.10 0.02 0.02 0.04 0.05 0.04 0.02 0.02 0.01 0.01 0.01 0.00 0.00 0.00 0.00 0.00 0.00 0.00 0.00 0.00 0.00 0.00 0.00 0.01 0.04 0.06 0.06 0.03 0.00 0.00 0.00
0.07 0.03 0.05 0.06 0.09 0.06 0.03 0.00 0.01 0.00 0.00 0.00 0.00 0.01 0.01 0.01 0.03 0.04 0.02 0.01 0.01 0.00 0.00 0.00 0.00 0.00 0.00 0.00 0.00 0.00 0.00 0.00 0.00 0.00 0.00 0.05 0.11 0.06 0.01 0.00 0.00 0.00 0.00 0.00
0.15 0.05 0.03 0.08 0.08 0.07 0.05 0.03 0.00 0.00 0.00 0.00 0.00 0.00 0.00 0.00 0.00 0.01 0.01 0.00 0.00 0.00 0.00 0.01 0.01 0.00 0.00 0.00 0.00 0.00 0.00 0.00 0.03 0.07 0.08 0.04 0.00 0.00 0.00 0.00 0.00 0.00 0.00 0.00
0.32 0.30 0.33 0.33 0.35 0.23 0.14 0.02 0.01 0.00 0.00 0.00 0.00 0.00 0.00 0.00 0.00 0.04 0.06 0.07 0.03 0.01 0.04 0.03 0.02 0.01 0.01 0.01 0.02 0.02 0.02 0.02 0.02 0.00 0.00 0.00 0.00 0.00 0.00 0.00 0.00 0.00 0.00 0.00
0.48 0.55 0.65 0.55 0.46 0.22 0.12 0.04 0.02 0.01 0.00 0.00 0.00 0.00 0.00 0.01 0.04 0.18 0.26 0.32 0.17 0.19 0.11 0.06 0.09 0.10 0.07 0.04 0.02 0.00 0.00 0.00 0.00 0.00 0.00 0.00 0.00 0.00 0.00 0.00 0.00 0.00 0.00 0.00
0.39 0.40 0.41 0.30 0.13 0.07 0.03 0.02 0.02 0.02 0.02 0.04 0.07 0.12 0.13 0.14 0.31 0.36 0.30 0.27 0.20 0.18 0.21 0.29 0.29 0.09 0.01 0.00 0.00 0.00 0.00 0.00 0.00 0.00 0.00 0.00 0.00 0.00 0.00 0.00 0.00 0.00 0.00 0.00
0.21 0.21 0.15 0.11 0.07 0.09 0.11 0.13 0.13 0.13 0.15 0.18 0.23 0.24 0.27 0.31 0.24 0.18 0.19 0.21 0.22 0.27 0.14 0.12 0.09 0.08 0.02 0.00 0.00 0.00 0.00 0.00 0.00 0.00 0.00 0.00 0.00 0.00 0.00 0.00 0.00 0.00 0.00 0.00
0.27 0.16 0.09 0.05 0.05 0.08 0.09 0.09 0.12 0.13 0.12 0.13 0.15 0.13 0.13 0.16 0.16 0.16 0.15 0.19 0.12 0.04 0.04 0.09 0.06 0.03 0.00 0.00 0.00 0.01 0.00 0.00 0.00 0.00 0.00 0.00 0.00 0.00 0.00 0.00 0.00 0.00 0.00 0.00

GFSNW_prec_precacc24_060.txt.gz
Total_Precipitation_Accumulation
0.20 0.18 0.14 0.16 0.14 0.14 0.22 0.12 0.04 0.03 0.01 0.02 0.01 0.00 0.00 0.00 0.00 0.00 0.00 0.00 0.00 0.00 0.00 0.00 0.00 0.00 0.00 0.00 0.00 0.00 0.00 0.00 0.00 0.01 0.00 0.00 0.00 0.00 0.01 0.00 0.00 0.00 0.00 0.00
0.29 0.28 0.26 0.22 0.18 0.17 0.16 0.13 0.14 0.26 0.04 0.03 0.01 0.00 0.00 0.00 0.00 0.00 0.00 0.00 0.00 0.00 0.00 0.00 0.00 0.00 0.00 0.00 0.00 0.00 0.00 0.00 0.00 0.00 0.00 0.01 0.00 0.00 0.00 0.00 0.00 0.00 0.00 0.00
0.35 0.31 0.38 0.25 0.20 0.19 0.16 0.10 0.20 0.31 0.14 0.00 0.00 0.00 0.00 0.00 0.00 0.00 0.00 0.00 0.00 0.00 0.00 0.00 0.00 0.00 0.00 0.00 0.00 0.00 0.00 0.00 0.00 0.00 0.00 0.00 0.00 0.00 0.00 0.00 0.00 0.00 0.00 0.00
0.40 0.35 0.41 0.28 0.21 0.25 0.30 0.16 0.02 0.05 0.06 0.01 0.01 0.00 0.00 0.00 0.00 0.00 0.00 0.00 0.00 0.00 0.00 0.00 0.00 0.00 0.00 0.00 0.00 0.00 0.00 0.00 0.00 0.00 0.00 0.00 0.00 0.00 0.00 0.00 0.00 0.00 0.00 0.00
0.38 0.33 0.46 0.34 0.28 0.37 0.47 0.17 0.01 0.01 0.01 0.00 0.00 0.00 0.00 0.00 0.00 0.00 0.00 0.00 0.00 0.00 0.00 0.00 0.00 0.00 0.00 0.00 0.00 0.00 0.00 0.00 0.00 0.00 0.00 0.00 0.00 0.00 0.00 0.00 0.00 0.00 0.00 0.00
0.34 0.27 0.42 0.41 0.45 0.58 0.32 0.11 0.02 0.01 0.02 0.01 0.00 0.00 0.00 0.00 0.00 0.00 0.00 0.00 0.00 0.00 0.00 0.00 0.00 0.00 0.00 0.00 0.00 0.00 0.00 0.00 0.00 0.00 0.00 0.00 0.00 0.00 0.00 0.00 0.00 0.00 0.00 0.00
0.29 0.23 0.34 0.46 0.50 0.42 0.08 0.05 0.09 0.14 0.06 0.01 0.00 0.00 0.00 0.00 0.00 0.00 0.00 0.00 0.00 0.00 0.00 0.00 0.00 0.00 0.00 0.01 0.02 0.01 0.00 0.00 0.00 0.00 0.00 0.00 0.00 0.00 0.00 0.00 0.00 0.00 0.00 0.00
0.23 0.20 0.26 0.41 0.36 0.24 0.10 0.14 0.20 0.20 0.07 0.01 0.00 0.00 0.00 0.00 0.00 0.00 0.00 0.00 0.00 0.00 0.00 0.02 0.05 0.02 0.03 0.04 0.04 0.02 0.00 0.00 0.00 0.00 0.00 0.00 0.00 0.00 0.00 0.00 0.00 0.00 0.00 0.00
0.19 0.17 0.20 0.24 0.21 0.18 0.16 0.18 0.25 0.36 0.16 0.02 0.00 0.00 0.00 0.00 0.00 0.01 0.05 0.03 0.03 0.01 0.01 0.02 0.01 0.01 0.00 0.00 0.00 0.00 0.00 0.00 0.01 0.00 0.00 0.00 0.00 0.00 0.00 0.00 0.00 0.00 0.00 0.00
0.18 0.14 0.13 0.15 0.12 0.15 0.18 0.20 0.32 0.47 0.27 0.03 0.00 0.00 0.00 0.00 0.00 0.04 0.01 0.11 0.10 0.11 0.10 0.09 0.02 0.00 0.00 0.00 0.00 0.00 0.00 0.00 0.00 0.00 0.00 0.00 0.00 0.00 0.00 0.00 0.00 0.00 0.00 0.00
0.16 0.11 0.10 0.09 0.08 0.09 0.15 0.23 0.35 0.42 0.39 0.07 0.05 0.00 0.00 0.01 0.01 0.03 0.00 0.03 0.10 0.14 0.18 0.11 0.02 0.00 0.00 0.00 0.00 0.00 0.00 0.00 0.00 0.00 0.00 0.00 0.00 0.00 0.00 0.00 0.00 0.00 0.00 0.00
0.17 0.11 0.12 0.08 0.04 0.06 0.16 0.28 0.34 0.31 0.56 0.26 0.09 0.02 0.00 0.00 0.00 0.02 0.02 0.01 0.01 0.04 0.05 0.05 0.02 0.00 0.00 0.00 0.00 0.00 0.00 0.00 0.00 0.00 0.00 0.00 0.00 0.00 0.00 0.00 0.00 0.00 0.00 0.00
0.17 0.14 0.13 0.05 0.02 0.06 0.14 0.28 0.44 0.60 0.52 0.29 0.18 0.06 0.00 0.00 0.00 0.03 0.06 0.01 0.01 0.00 0.02 0.02 0.01 0.01 0.00 0.00 0.00 0.00 0.00 0.00 0.00 0.00 0.00 0.00 0.00 0.00 0.00 0.00 0.00 0.00 0.00 0.00
0.17 0.10 0.08 0.04 0.02 0.07 0.20 0.32 0.48 0.82 0.83 0.39 0.29 0.08 0.00 0.02 0.03 0.01 0.10 0.06 0.02 0.03 0.01 0.01 0.01 0.01 0.00 0.00 0.00 0.00 0.00 0.00 0.00 0.00 0.00 0.00 0.00 0.00 0.00 0.00 0.00 0.00 0.00 0.00
0.12 0.08 0.05 0.03 0.03 0.10 0.33 0.40 0.42 0.87 0.97 0.42 0.23 0.15 0.01 0.02 0.03 0.04 0.14 0.27 0.21 0.09 0.04 0.03 0.02 0.00 0.00 0.00 0.00 0.00 0.00 0.00 0.00 0.00 0.00 0.00 0.00 0.00 0.00 0.00 0.00 0.00 0.00 0.00
0.10 0.06 0.05 0.06 0.12 0.23 0.60 0.56 0.33 0.74 0.77 0.61 0.29 0.24 0.10 0.04 0.04 0.06 0.04 0.10 0.34 0.38 0.19 0.09 0.01 0.00 0.00 0.00 0.00 0.00 0.00 0.00 0.00 0.00 0.00 0.00 0.00 0.00 0.00 0.00 0.00 0.00 0.00 0.00
0.13 0.07 0.08 0.15 0.25 0.45 0.74 0.47 0.39 0.49 0.71 0.58 0.33 0.32 0.16 0.06 0.04 0.05 0.07 0.06 0.08 0.16 0.20 0.20 0.06 0.01 0.00 0.00 0.00 0.00 0.00 0.00 0.00 0.00 0.00 0.00 0.00 0.00 0.00 0.00 0.00 0.00 0.00 0.00
0.18 0.15 0.16 0.22 0.42 0.62 0.59 0.48 0.53 0.31 0.32 0.26 0.31 0.17 0.12 0.04 0.05 0.04 0.03 0.06 0.07 0.04 0.03 0.07 0.05 0.02 0.01 0.00 0.00 0.00 0.00 0.00 0.00 0.00 0.00 0.00 0.00 0.00 0.00 0.00 0.00 0.00 0.01 0.04
0.20 0.19 0.33 0.49 0.75 0.81 0.57 0.58 0.63 0.33 0.13 0.05 0.15 0.20 0.06 0.03 0.04 0.04 0.03 0.03 0.04 0.02 0.02 0.02 0.01 0.00 0.00 0.00 0.00 0.00 0.00 0.00 0.00 0.00 0.00 0.00 0.00 0.00 0.00 0.00 0.02 0.05 0.04 0.00
0.28 0.43 0.61 0.77 0.88 0.68 0.47 0.67 0.49 0.15 0.01 0.00 0.01 0.14 0.17 0.04 0.04 0.05 0.04 0.04 0.04 0.02 0.01 0.02 0.01 0.00 0.00 0.00 0.00 0.00 0.00 0.00 0.00 0.00 0.00 0.00 0.01 0.04 0.06 0.06 0.03 0.00 0.00 0.00
0.45 0.49 0.57 0.66 0.81 0.59 0.57 0.46 0.21 0.04 0.00 0.00 0.00 0.02 0.12 0.09 0.06 0.07 0.05 0.06 0.06 0.03 0.01 0.02 0.01 0.00 0.01 0.01 0.01 0.01 0.00 0.00 0.00 0.00 0.00 0.05 0.11 0.06 0.01 0.00 0.00 0.00 0.00 0.00
0.30 0.20 0.27 0.37 0.51 0.43 0.31 0.11 0.01 0.00 0.00 0.00 0.00 0.00 0.05 0.13 0.05 0.06 0.05 0.04 0.01 0.01 0.00 0.01 0.01 0.00 0.01 0.02 0.02 0.01 0.00 0.01 0.03 0.07 0.08 0.04 0.00 0.00 0.00 0.00 0.00 0.00 0.00 0.00
0.03 0.09 0.24 0.32 0.34 0.24 0.06 0.01 0.00 0.00 0.00 0.00 0.00 0.00 0.01 0.12 0.11 0.14 0.08 0.08 0.05 0.01 0.02 0.01 0.01 0.01 0.01 0.02 0.02 0.02 0.02 0.02 0.02 0.00 0.00 0.00 0.00 0.00 0.00 0.00 0.00 0.00 0.00 0.00
0.14 0.20 0.18 0.22 0.16 0.04 0.01 0.00 0.00 0.00 0.00 0.00 0.00 0.00 0.00 0.05 0.08 0.19 0.20 0.19 0.08 0.10 0.06 0.04 0.06 0.08 0.08 0.05 0.02 0.00 0.00 0.00 0.00 0.00 0.00 0.00 0.00 0.00 0.00 0.00 0.00 0.00 0.00 0.00
0.26 0.22 0.22 0.11 0.03 0.01 0.01 0.01 0.01 0.00 0.00 0.00 0.01 0.04 0.04 0.05 0.13 0.16 0.14 0.14 0.08 0.05 0.04 0.09 0.18 0.09 0.01 0.00 0.00 0.00 0.00 0.00 0.00 0.00 0.00 0.00 0.00 0.00 0.00 0.00 0.00 0.00 0.00 0.00
0.22 0.19 0.12 0.06 0.02 0.03 0.03 0.04 0.04 0.03 0.04 0.06 0.09 0.08 0.09 0.14 0.09 0.07 0.06 0.07 0.04 0.03 0.04 0.10 0.09 0.08 0.01 0.00 0.00 0.00 0.00 0.00 0.00 0.00 0.00 0.00 0.00 0.00 0.00 0.00 0.00 0.00 0.00 0.00
0.32 0.19 0.10 0.05 0.04 0.06 0.06 0.06 0.06 0.06 0.06 0.09 0.10 0.06 0.04 0.07 0.06 0.04 0.04 0.04 0.02 0.01 0.03 0.08 0.06 0.03 0.00 0.00 0.00 0.01 0.00 0.00 0.00 0.00 0.00 0.00 0.00 0.00 0.00 0.00 0.00 0.00 0.00 0.00

GFSNW_prec_precacc24_063.txt.gz
Total_Precipitation_Accumulation
0.20 0.18 0.17 0.17 0.16 0.19 0.28 0.14 0.06 0.04 0.02 0.09 0.03 0.00 0.00 0.00 0.00 0.00 0.00 0.00 0.00 0.00 0.00 0.00 0.00 0.00 0.00 0.00 0.00 0.00 0.00 0.00 0.00 0.01 0.00 0.00 0.00 0.00 0.01 0.00 0.00 0.00 0.00 0.00
0.29 0.28 0.26 0.23 0.18 0.20 0.20 0.15 0.16 0.29 0.05 0.04 0.01 0.00 0.00 0.00 0.00 0.00 0.00 0.00 0.00 0.00 0.00 0.00 0.00 0.00 0.00 0.00 0.00 0.00 0.00 0.00 0.00 0.00 0.00 0.01 0.00 0.00 0.00 0.00 0.00 0.00 0.00 0.00
0.35 0.31 0.37 0.25 0.20 0.23 0.24 0.13 0.24 0.38 0.17 0.00 0.00 0.00 0.00 0.00 0.00 0.00 0.00 0.00 0.00 0.00 0.00 0.00 0.00 0.00 0.00 0.00 0.00 0.00 0.00 0.00 0.00 0.00 0.00 0.00 0.00 0.00 0.00 0.00 0.00 0.00 0.00 0.00
0.40 0.35 0.41 0.28 0.22 0.30 0.50 0.22 0.05 0.06 0.08 0.01 0.01 0.00 0.00 0.00 0.00 0.00 0.00 0.00 0.00 0.00 0.00 0.00 0.00 0.00 0.00 0.00 0.00 0.00 0.00 0.00 0.00 0.00 0.00 0.00 0.00 0.00 0.00 0.00 0.00 0.00 0.00 0.00
0.38 0.33 0.46 0.36 0.30 0.49 0.77 0.24 0.03 0.02 0.01 0.00 0.00 0.00 0.00 0.00 0.00 0.00 0.00 0.00 0.00 0.00 0.00 0.00 0.00 0.00 0.00 0.00 0.00 0.00 0.00 0.00 0.00 0.00 0.00 0.00 0.00 0.00 0.00 0.00 0.00 0.00 0.00 0.00
0.34 0.27 0.43 0.44 0.48 0.86 0.74 0.17 0.02 0.02 0.03 0.01 0.00 0.00 0.00 0.00 0.00 0.00 0.00 0.00 0.00 0.00 0.00 0.00 0.00 0.00 0.00 0.00 0.00 0.00 0.00 0.00 0.00 0.00 0.00 0.00 0.00 0.00 0.00 0.00 0.00 0.00 0.00 0.00
0.29 0.23 0.35 0.49 0.55 0.72 0.38 0.07 0.08 0.16 0.07 0.02 0.00 0.00 0.00 0.00 0.00 0.00 0.00 0.00 0.00 0.00 0.00 0.00 0.00 0.00 0.00 0.01 0.02 0.01 0.00 0.00 0.00 0.00 0.00 0.00 0.00 0.00 0.00 0.00 0.00 0.00 0.00 0.00
0.23 0.20 0.27 0.43 0.39 0.45 0.32 0.14 0.19 0.24 0.09 0.01 0.01 0.00 0.00 0.00 0.00 0.00 0.00 0.00 0.00 0.00 0.01 0.03 0.05 0.02 0.03 0.04 0.04 0.02 0.00 0.00 0.00 0.00 0.00 0.00 0.00 0.00 0.00 0.00 0.00 0.00 0.00 0.00
0.19 0.17 0.20 0.25 0.23 0.32 0.31 0.21 0.27 0.44 0.19 0.03 0.00 0.00 0.00 0.00 0.00 0.01 0.05 0.03 0.03 0.01 0.01 0.03 0.02 0.01 0.00 0.00 0.00 0.00 0.00 0.00 0.01 0.00 0.00 0.00 0.00 0.00 0.00 0.00 0.00 0.00 0.00 0.00
0.17 0.13 0.14 0.15 0.13 0.27 0.32 0.24 0.38 0.58 0.31 0.07 0.00 0.00 0.00 0.00 0.00 0.04 0.01 0.11 0.10 0.12 0.12 0.10 0.02 0.00 0.00 0.00 0.00 0.00 0.00 0.01 0.00 0.00 0.00 0.00 0.00 0.00 0.00 0.00 0.00 0.00 0.00 0.00
0.16 0.11 0.10 0.10 0.10 0.19 0.26 0.26 0.44 0.54 0.45 0.11 0.07 0.00 0.00 0.01 0.01 0.03 0.00 0.04 0.10 0.16 0.20 0.13 0.03 0.00 0.00 0.00 0.00 0.00 0.00 0.00 0.00 0.00 0.00 0.00 0.00 0.00 0.00 0.00 0.00 0.00 0.00 0.00
0.17 0.12 0.12 0.10 0.07 0.13 0.23 0.31 0.40 0.43 0.66 0.29 0.12 0.02 0.00 0.00 0.00 0.02 0.02 0.01 0.01 0.04 0.07 0.05 0.03 0.01 0.00 0.00 0.00 0.00 0.00 0.00 0.00 0.00 0.00 0.00 0.00 0.00 0.00 0.00 0.00 0.00 0.00 0.00
0.17 0.14 0.14 0.11 0.06 0.12 0.22 0.30 0.46 0.69 0.64 0.31 0.19 0.10 0.00 0.00 0.00 0.03 0.06 0.02 0.02 0.02 0.05 0.06 0.03 0.02 0.00 0.00 0.00 0.00 0.00 0.00 0.00 0.00 0.00 0.00 0.00 0.00 0.00 0.00 0.00 0.00 0.00 0.00
0.19 0.12 0.13 0.13 0.06 0.13 0.29 0.33 0.52 0.88 1.00 0.48 0.31 0.17 0.05 0.03 0.03 0.01 0.10 0.07 0.03 0.06 0.06 0.08 0.02 0.02 0.00 0.00 0.00 0.00 0.00 0.00 0.00 0.00 0.00 0.00 0.00 0.00 0.00 0.00 0.00 0.00 0.00 0.00
0.18 0.12 0.14 0.16 0.09 0.19 0.39 0.41 0.47 0.91 1.13 0.54 0.25 0.19 0.06 0.09 0.08 0.04 0.14 0.27 0.21 0.14 0.11 0.06 0.02 0.00 0.00 0.00 0.00 0.00 0.00 0.00 0.00 0.00 0.00 0.00 0.00 0.00 0.00 0.00 0.00 0.00 0.00 0.00
0.14 0.10 0.16 0.17 0.17 0.27 0.62 0.59 0.39 0.80 0.88 0.77 0.31 0.25 0.11 0.14 0.16 0.11 0.09 0.17 0.40 0.42 0.23 0.10 0.02 0.01 0.00 0.00 0.00 0.00 0.00 0.00 0.00 0.00 0.00 0.00 0.00 0.00 0.00 0.00 0.00 0.00 0.00 0.00
0.16 0.11 0.18 0.21 0.28 0.47 0.75 0.48 0.42 0.52 0.76 0.65 0.37 0.34 0.17 0.11 0.13 0.10 0.11 0.12 0.16 0.24 0.27 0.26 0.14 0.05 0.02 0.00 0.00 0.00 0.00 0.00 0.00 0.00 0.00 0.00 0.00 0.00 0.00 0.00 0.00 0.00 0.00 0.00
0.19 0.16 0.17 0.22 0.46 0.65 0.59 0.60 0.66 0.36 0.35 0.37 0.45 0.25 0.20 0.07 0.07 0.07 0.04 0.08 0.11 0.11 0.14 0.15 0.14 0.12 0.13 0.05 0.00 0.00 0.00 0.00 0.00 0.00 0.00 0.00 0.00 0.00 0.00 0.00 0.00 0.00 0.01 0.04
0.20 0.19 0.34 0.55 0.84 0.86 0.59 0.90 1.04 0.52 0.30 0.24 0.29 0.33 0.25 0.08 0.05 0.05 0.04 0.05 0.08 0.07 0.04 0.05 0.07 0.07 0.09 0.08 0.01 0.00 0.00 0.00 0.00 0.00 0.00 0.00 0.00 0.00 0.00 0.00 0.02 0.05 0.04 0.00
0.29 0.50 0.76 0.87 0.98 0.74 0.55 0.95 0.91 0.52 0.24 0.11 0.09 0.19 0.38 0.10 0.05 0.06 0.05 0.04 0.06 0.03 0.01 0.02 0.01 0.01 0.01 0.00 0.00 0.00 0.00 0.00 0.00 0.01 0.01 0.00 0.00 0.03 0.05 0.05 0.03 0.00 0.00 0.00
0.51 0.65 0.74 0.77 0.94 0.74 0.79 0.83 0.66 0.28 0.08 0.04 0.02 0.03 0.19 0.18 0.08 0.07 0.05 0.06 0.06 0.03 0.01 0.02 0.01 0.00 0.01 0.01 0.01 0.01 0.01 0.01 0.01 0.00 0.00 0.03 0.06 0.04 0.01 0.00 0.00 0.00 0.00 0.00
0.48 0.38 0.38 0.50 0.72 0.71 0.54 0.44 0.34 0.09 0.01 0.01 0.00 0.00 0.06 0.14 0.05 0.06 0.05 0.04 0.01 0.01 0.00 0.01 0.01 0.00 0.01 0.02 0.02 0.01 0.00 0.01 0.01 0.02 0.03 0.03 0.01 0.00 0.00 0.00 0.00 0.00 0.00 0.00
0.34 0.16 0.29 0.45 0.53 0.42 0.21 0.13 0.05 0.01 0.00 0.00 0.00 0.00 0.01 0.12 0.11 0.13 0.07 0.07 0.04 0.01 0.02 0.01 0.01 0.01 0.01 0.02 0.02 0.02 0.01 0.01 0.01 0.01 0.02 0.02 0.00 0.00 0.00 0.00 0.00 0.00 0.00 0.00
0.24 0.32 0.27 0.41 0.21 0.09 0.03 0.00 0.00 0.00 0.00 0.00 0.00 0.00 0.00 0.05 0.07 0.16 0.18 0.15 0.05 0.07 0.05 0.03 0.05 0.06 0.07 0.03 0.02 0.01 0.02 0.02 0.03 0.04 0.01 0.00 0.00 0.00 0.00 0.00 0.00 0.00 0.00 0.00
0.32 0.25 0.21 0.16 0.03 0.01 0.02 0.00 0.00 0.00 0.00 0.00 0.00 0.02 0.02 0.02 0.07 0.10 0.10 0.13 0.08 0.03 0.02 0.04 0.12 0.07 0.01 0.00 0.00 0.01 0.01 0.01 0.00 0.00 0.00 0.00 0.00 0.00 0.00 0.00 0.00 0.00 0.00 0.00
0.24 0.19 0.11 0.04 0.01 0.02 0.02 0.03 0.02 0.01 0.02 0.03 0.05 0.04 0.06 0.09 0.05 0.04 0.04 0.03 0.01 0.01 0.02 0.06 0.07 0.05 0.00 0.00 0.00 0.00 0.00 0.00 0.00 0.00 0.00 0.00 0.00 0.00 0.00 0.00 0.00 0.00 0.00 0.00
0.33 0.20 0.11 0.06 0.05 0.06 0.06 0.05 0.06 0.05 0.05 0.07 0.07 0.04 0.02 0.04 0.03 0.01 0.01 0.02 0.01 0.01 0.03 0.08 0.06 0.03 0.00 0.01 0.01 0.01 0.00 0.00 0.01 0.01 0.00 0.00 0.00 0.00 0.00 0.00 0.00 0.00 0.00 0.00

GFSNW_prec_precacc24_066.txt.gz
Total_Precipitation_Accumulation
0.20 0.18 0.17 0.18 0.16 0.22 0.33 0.19 0.08 0.04 0.02 0.13 0.07 0.02 0.00 0.00 0.00 0.00 0.00 0.00 0.00 0.00 0.00 0.00 0.00 0.00 0.00 0.00 0.00 0.00 0.00 0.00 0.00 0.01 0.00 0.00 0.00 0.00 0.01 0.00 0.00 0.00 0.00 0.00
0.30 0.28 0.26 0.23 0.19 0.22 0.23 0.24 0.19 0.34 0.05 0.05 0.02 0.00 0.00 0.00 0.00 0.00 0.00 0.00 0.00 0.00 0.00 0.00 0.00 0.00 0.00 0.00 0.00 0.00 0.00 0.00 0.00 0.00 0.00 0.01 0.00 0.00 0.00 0.00 0.00 0.00 0.00 0.00
0.37 0.32 0.37 0.25 0.21 0.24 0.33 0.26 0.27 0.48 0.20 0.01 0.00 0.00 0.00 0.00 0.00 0.00 0.00 0.00 0.00 0.00 0.00 0.00 0.00 0.00 0.00 0.00 0.00 0.00 0.00 0.00 0.00 0.00 0.00 0.00 0.00 0.00 0.00 0.00 0.00 0.00 0.00 0.00
0.42 0.35 0.41 0.28 0.22 0.31 0.66 0.47 0.08 0.09 0.10 0.02 0.01 0.00 0.00 0.00 0.00 0.00 0.00 0.00 0.00 0.00 0.00 0.00 0.00 0.00 0.00 0.00 0.00 0.00 0.00 0.00 0.00 0.00 0.00 0.00 0.00 0.00 0.00 0.00 0.00 0.00 0.00 0.00
0.40 0.34 0.47 0.35 0.30 0.49 0.95 0.53 0.07 0.03 0.01 0.00 0.01 0.01 0.00 0.00 0.00 0.00 0.00 0.00 0.00 0.00 0.00 0.00 0.00 0.00 0.00 0.00 0.00 0.00 0.00 0.00 0.00 0.00 0.00 0.00 0.00 0.00 0.00 0.00 0.00 0.00 0.00 0.00
0.37 0.28 0.43 0.44 0.49 0.88 0.95 0.37 0.05 0.03 0.03 0.01 0.01 0.00 0.00 0.00 0.00 0.00 0.00 0.00 0.00 0.00 0.00 0.00 0.00 0.00 0.00 0.00 0.00 0.00 0.00 0.00 0.00 0.00 0.00 0.00 0.00 0.00 0.00 0.00 0.00 0.00 0.00 0.00
0.34 0.25 0.35 0.48 0.55 0.73 0.46 0.15 0.10 0.19 0.08 0.02 0.00 0.00 0.00 0.00 0.00 0.00 0.00 0.00 0.00 0.00 0.00 0.01 0.00 0.00 0.00 0.01 0.02 0.01 0.00 0.00 0.00 0.00 0.00 0.00 0.00 0.00 0.00 0.00 0.00 0.00 0.00 0.00
0.27 0.22 0.27 0.42 0.39 0.46 0.37 0.16 0.20 0.31 0.13 0.02 0.01 0.00 0.00 0.00 0.00 0.00 0.00 0.00 0.00 0.00 0.01 0.03 0.05 0.02 0.03 0.04 0.04 0.02 0.00 0.00 0.00 0.00 0.00 0.00 0.00 0.00 0.00 0.00 0.00 0.00 0.00 0.00
0.23 0.18 0.20 0.25 0.23 0.34 0.35 0.27 0.28 0.53 0.32 0.04 0.00 0.00 0.00 0.00 0.00 0.01 0.05 0.03 0.03 0.01 0.01 0.03 0.02 0.02 0.00 0.00 0.00 0.00 0.00 0.00 0.01 0.00 0.00 0.00 0.00 0.00 0.00 0.00 0.00 0.00 0.00 0.00
0.21 0.14 0.14 0.16 0.14 0.30 0.40 0.36 0.41 0.67 0.51 0.11 0.01 0.00 0.00 0.00 0.00 0.04 0.01 0.11 0.10 0.12 0.12 0.10 0.03 0.00 0.00 0.00 0.00 0.00 0.00 0.01 0.00 0.00 0.00 0.00 0.00 0.00 0.00 0.00 0.00 0.00 0.00 0.00
0.18 0.11 0.11 0.11 0.11 0.23 0.39 0.39 0.50 0.61 0.57 0.14 0.11 0.02 0.00 0.01 0.01 0.03 0.00 0.04 0.10 0.16 0.20 0.13 0.03 0.01 0.00 0.00 0.00 0.00 0.00 0.00 0.00 0.00 0.00 0.00 0.00 0.00 0.00 0.00 0.00 0.00 0.00 0.00
0.18 0.11 0.13 0.11 0.09 0.18 0.37 0.42 0.54 0.48 0.72 0.32 0.14 0.03 0.00 0.00 0.00 0.02 0.02 0.01 0.01 0.04 0.07 0.05 0.04 0.01 0.00 0.00 0.00 0.00 0.00 0.00 0.00 0.00 0.00 0.00 0.00 0.00 0.00 0.00 0.00 0.00 0.00 0.00
0.19 0.14 0.15 0.13 0.08 0.16 0.32 0.38 0.62 0.73 0.69 0.36 0.21 0.11 0.01 0.00 0.00 0.03 0.06 0.02 0.02 0.02 0.05 0.09 0.06 0.03 0.00 0.00 0.00 0.00 0.00 0.00 0.00 0.00 0.00 0.00 0.00 0.00 0.00 0.00 0.00 0.00 0.00 0.00
0.21 0.13 0.15 0.15 0.08 0.15 0.32 0.37 0.60 0.91 1.07 0.54 0.36 0.23 0.08 0.04 0.03 0.01 0.10 0.07 0.03 0.06 0.07 0.12 0.06 0.03 0.01 0.00 0.00 0.00 0.00 0.00 0.00 0.00 0.00 0.00 0.00 0.00 0.00 0.00 0.00 0.00 0.00 0.00
0.19 0.13 0.15 0.17 0.10 0.22 0.47 0.43 0.48 0.92 1.18 0.58 0.28 0.23 0.12 0.13 0.11 0.05 0.14 0.27 0.21 0.15 0.13 0.10 0.06 0.02 0.01 0.01 0.00 0.00 0.00 0.00 0.00 0.00 0.00 0.00 0.00 0.00 0.00 0.00 0.00 0.00 0.00 0.00
0.15 0.11 0.16 0.18 0.22 0.40 0.79 0.65 0.41 0.82 0.94 0.81 0.34 0.27 0.16 0.24 0.27 0.18 0.10 0.17 0.40 0.42 0.24 0.12 0.02 0.01 0.01 0.00 0.00 0.00 0.00 0.00 0.00 0.00 0.00 0.00 0.00 0.00 0.00 0.00 0.00 0.00 0.00 0.00
0.16 0.12 0.21 0.29 0.37 0.56 0.87 0.51 0.43 0.54 0.81 0.84 0.47 0.35 0.18 0.18 0.27 0.19 0.13 0.14 0.17 0.25 0.28 0.26 0.15 0.07 0.02 0.00 0.00 0.00 0.00 0.00 0.00 0.00 0.00 0.00 0.00 0.00 0.00 0.00 0.00 0.00 0.00 0.00
0.24 0.24 0.31 0.37 0.52 0.68 0.63 0.62 0.67 0.36 0.38 0.59 0.63 0.27 0.22 0.11 0.16 0.17 0.09 0.12 0.16 0.15 0.15 0.15 0.15 0.18 0.20 0.10 0.00 0.00 0.00 0.00 0.00 0.00 0.00 0.00 0.00 0.00 0.00 0.00 0.00 0.00 0.01 0.04
0.31 0.35 0.52 0.71 0.89 0.89 0.61 0.94 1.04 0.52 0.33 0.34 0.36 0.39 0.28 0.09 0.08 0.11 0.16 0.09 0.12 0.10 0.09 0.08 0.11 0.12 0.14 0.10 0.02 0.00 0.00 0.01 0.00 0.00 0.00 0.00 0.00 0.00 0.00 0.00 0.01 0.03 0.03 0.00
0.38 0.61 0.86 0.93 1.00 0.78 0.68 1.10 1.03 0.64 0.31 0.19 0.13 0.21 0.42 0.17 0.08 0.10 0.16 0.10 0.08 0.08 0.06 0.07 0.05 0.01 0.01 0.00 0.00 0.01 0.00 0.00 0.01 0.01 0.01 0.01 0.00 0.01 0.01 0.02 0.01 0.00 0.00 0.00
0.52 0.66 0.77 0.82 1.00 0.90 0.92 0.94 0.78 0.37 0.12 0.05 0.02 0.04 0.31 0.47 0.20 0.12 0.12 0.13 0.08 0.04 0.03 0.04 0.03 0.01 0.01 0.01 0.01 0.01 0.01 0.01 0.01 0.00 0.00 0.00 0.01 0.00 0.00 0.00 0.00 0.00 0.00 0.00
0.53 0.51 0.50 0.64 0.79 0.74 0.58 0.48 0.47 0.16 0.02 0.01 0.02 0.01 0.11 0.63 0.43 0.21 0.11 0.13 0.07 0.02 0.01 0.01 0.01 0.00 0.01 0.02 0.02 0.01 0.00 0.00 0.00 0.00 0.00 0.01 0.01 0.02 0.02 0.02 0.03 0.02 0.00 0.00
0.60 0.34 0.43 0.53 0.58 0.44 0.23 0.17 0.16 0.05 0.00 0.00 0.01 0.01 0.04 0.35 0.46 0.20 0.09 0.07 0.05 0.01 0.01 0.00 0.00 0.01 0.01 0.01 0.01 0.00 0.00 0.00 0.00 0.01 0.02 0.03 0.04 0.04 0.04 0.04 0.01 0.00 0.00 0.00
0.43 0.36 0.28 0.43 0.25 0.10 0.05 0.03 0.04 0.01 0.00 0.00 0.00 0.01 0.03 0.08 0.09 0.15 0.15 0.11 0.03 0.05 0.03 0.02 0.03 0.03 0.04 0.02 0.00 0.01 0.02 0.03 0.04 0.06 0.06 0.06 0.06 0.06 0.03 0.01 0.00 0.00 0.00 0.00
0.41 0.26 0.23 0.22 0.06 0.05 0.09 0.06 0.03 0.01 0.01 0.01 0.00 0.00 0.00 0.01 0.03 0.04 0.05 0.08 0.06 0.02 0.01 0.02 0.06 0.04 0.01 0.00 0.00 0.01 0.03 0.05 0.06 0.05 0.03 0.02 0.01 0.01 0.01 0.01 0.00 0.00 0.00 0.00
0.30 0.24 0.23 0.11 0.05 0.08 0.06 0.02 0.01 0.01 0.01 0.01 0.02 0.02 0.03 0.04 0.02 0.02 0.02 0.02 0.01 0.01 0.01 0.04 0.05 0.03 0.01 0.00 0.00 0.01 0.01 0.01 0.02 0.02 0.04 0.04 0.03 0.02 0.01 0.00 0.00 0.00 0.00 0.00
0.37 0.32 0.20 0.10 0.09 0.09 0.06 0.03 0.05 0.03 0.03 0.04 0.05 0.03 0.02 0.03 0.02 0.01 0.01 0.02 0.01 0.01 0.03 0.08 0.06 0.03 0.01 0.02 0.03 0.04 0.04 0.06 0.07 0.08 0.05 0.02 0.01 0.00 0.00 0.00 0.00 0.00 0.00 0.00

GFSNW_prec_precacc24_069.txt.gz
Total_Precipitation_Accumulation
0.23 0.21 0.18 0.18 0.16 0.23 0.37 0.25 0.11 0.04 0.03 0.16 0.10 0.02 0.00 0.00 0.00 0.00 0.00 0.00 0.00 0.00 0.00 0.00 0.00 0.00 0.00 0.00 0.00 0.00 0.00 0.00 0.00 0.01 0.00 0.00 0.00 0.00 0.01 0.00 0.00 0.00 0.00 0.00
0.32 0.31 0.28 0.24 0.19 0.23 0.26 0.35 0.23 0.38 0.07 0.06 0.02 0.00 0.00 0.00 0.00 0.00 0.00 0.00 0.00 0.00 0.00 0.00 0.00 0.00 0.00 0.00 0.00 0.00 0.00 0.00 0.00 0.00 0.00 0.01 0.00 0.00 0.00 0.00 0.00 0.00 0.00 0.00
0.42 0.37 0.40 0.26 0.21 0.24 0.35 0.34 0.36 0.62 0.25 0.01 0.00 0.00 0.00 0.00 0.00 0.00 0.00 0.00 0.00 0.00 0.00 0.00 0.00 0.00 0.00 0.00 0.00 0.00 0.00 0.00 0.00 0.00 0.00 0.00 0.00 0.00 0.00 0.00 0.00 0.00 0.00 0.00
0.48 0.43 0.47 0.31 0.23 0.32 0.69 0.61 0.20 0.16 0.12 0.02 0.01 0.00 0.00 0.00 0.00 0.00 0.00 0.00 0.00 0.00 0.00 0.00 0.00 0.00 0.00 0.00 0.00 0.00 0.00 0.00 0.00 0.00 0.00 0.00 0.00 0.00 0.00 0.00 0.00 0.00 0.00 0.00
0.50 0.45 0.55 0.38 0.31 0.52 0.98 0.66 0.15 0.04 0.02 0.00 0.01 0.01 0.00 0.00 0.00 0.00 0.00 0.00 0.00 0.00 0.00 0.00 0.00 0.00 0.00 0.00 0.00 0.00 0.00 0.00 0.00 0.00 0.00 0.00 0.00 0.00 0.00 0.00 0.00 0.00 0.00 0.00
0.52 0.42 0.52 0.47 0.51 0.89 0.99 0.40 0.06 0.03 0.04 0.02 0.01 0.00 0.00 0.00 0.00 0.00 0.00 0.00 0.00 0.00 0.00 0.00 0.00 0.00 0.00 0.00 0.00 0.00 0.00 0.00 0.00 0.00 0.00 0.00 0.00 0.00 0.00 0.00 0.00 0.00 0.00 0.00
0.53 0.42 0.45 0.52 0.56 0.73 0.46 0.15 0.10 0.19 0.09 0.04 0.00 0.00 0.00 0.00 0.00 0.00 0.00 0.00 0.00 0.00 0.00 0.01 0.00 0.00 0.00 0.01 0.02 0.01 0.00 0.00 0.00 0.00 0.00 0.00 0.00 0.00 0.00 0.00 0.00 0.00 0.00 0.00
0.49 0.38 0.38 0.47 0.40 0.46 0.36 0.16 0.19 0.33 0.14 0.03 0.01 0.00 0.00 0.00 0.00 0.00 0.00 0.00 0.00 0.00 0.01 0.03 0.06 0.03 0.03 0.04 0.04 0.02 0.00 0.00 0.00 0.00 0.00 0.00 0.00 0.00 0.00 0.00 0.00 0.00 0.00 0.00
0.47 0.33 0.29 0.28 0.24 0.34 0.34 0.27 0.27 0.55 0.38 0.05 0.01 0.02 0.00 0.00 0.00 0.01 0.05 0.03 0.03 0.01 0.01 0.03 0.03 0.04 0.01 0.00 0.00 0.00 0.00 0.00 0.01 0.00 0.00 0.00 0.00 0.00 0.00 0.00 0.00 0.00 0.00 0.00
0.43 0.27 0.19 0.17 0.14 0.29 0.39 0.36 0.41 0.74 0.59 0.15 0.02 0.02 0.01 0.00 0.00 0.04 0.01 0.11 0.10 0.12 0.12 0.10 0.03 0.00 0.01 0.00 0.00 0.00 0.00 0.01 0.00 0.00 0.00 0.00 0.00 0.00 0.00 0.00 0.00 0.00 0.00 0.00
0.34 0.19 0.15 0.14 0.11 0.23 0.39 0.39 0.48 0.65 0.67 0.19 0.19 0.04 0.01 0.01 0.01 0.03 0.00 0.04 0.10 0.16 0.20 0.13 0.03 0.01 0.00 0.00 0.00 0.00 0.00 0.00 0.00 0.00 0.00 0.00 0.00 0.00 0.00 0.00 0.00 0.00 0.00 0.00
0.27 0.18 0.18 0.15 0.10 0.19 0.37 0.40 0.50 0.49 0.82 0.36 0.28 0.10 0.01 0.00 0.00 0.02 0.02 0.01 0.01 0.04 0.07 0.05 0.04 0.01 0.00 0.00 0.00 0.00 0.00 0.00 0.00 0.00 0.00 0.00 0.00 0.00 0.00 0.00 0.00 0.00 0.00 0.00
0.29 0.23 0.21 0.15 0.09 0.16 0.32 0.37 0.58 0.81 0.77 0.40 0.27 0.17 0.04 0.00 0.00 0.03 0.06 0.02 0.02 0.02 0.05 0.09 0.06 0.03 0.00 0.00 0.00 0.01 0.01 0.01 0.00 0.00 0.00 0.00 0.00 0.00 0.00 0.00 0.00 0.00 0.00 0.00
0.30 0.21 0.18 0.16 0.10 0.18 0.33 0.39 0.64 1.01 1.11 0.63 0.43 0.31 0.16 0.08 0.04 0.01 0.10 0.07 0.03 0.06 0.07 0.12 0.06 0.03 0.01 0.00 0.00 0.00 0.00 0.01 0.01 0.00 0.00 0.00 0.00 0.00 0.00 0.00 0.00 0.00 0.00 0.00
0.25 0.16 0.17 0.20 0.12 0.25 0.48 0.47 0.57 1.04 1.31 0.66 0.33 0.31 0.17 0.18 0.15 0.06 0.14 0.27 0.21 0.15 0.13 0.11 0.06 0.02 0.02 0.01 0.00 0.00 0.00 0.00 0.00 0.00 0.00 0.00 0.00 0.00 0.00 0.00 0.00 0.00 0.00 0.00
0.18 0.13 0.19 0.21 0.25 0.42 0.85 0.78 0.47 0.88 1.06 0.91 0.43 0.35 0.26 0.30 0.34 0.26 0.11 0.17 0.40 0.42 0.24 0.12 0.02 0.01 0.01 0.01 0.00 0.00 0.00 0.00 0.00 0.00 0.00 0.00 0.00 0.00 0.00 0.00 0.00 0.00 0.00 0.00
0.18 0.14 0.22 0.32 0.40 0.58 0.94 0.56 0.44 0.55 0.91 0.90 0.56 0.46 0.27 0.32 0.31 0.23 0.15 0.14 0.17 0.25 0.28 0.26 0.15 0.07 0.02 0.00 0.00 0.00 0.00 0.00 0.00 0.00 0.00 0.00 0.00 0.00 0.00 0.00 0.00 0.00 0.00 0.00
0.24 0.25 0.32 0.39 0.53 0.71 0.67 0.65 0.68 0.39 0.48 0.63 0.69 0.34 0.26 0.36 0.26 0.21 0.11 0.13 0.16 0.15 0.15 0.15 0.15 0.18 0.20 0.10 0.00 0.00 0.00 0.00 0.00 0.00 0.00 0.00 0.00 0.00 0.00 0.00 0.00 0.00 0.01 0.01
0.31 0.37 0.56 0.78 0.94 0.91 0.64 1.01 1.09 0.58 0.43 0.40 0.42 0.46 0.31 0.26 0.31 0.21 0.30 0.14 0.16 0.12 0.09 0.07 0.11 0.12 0.14 0.10 0.02 0.01 0.01 0.01 0.01 0.00 0.00 0.00 0.00 0.00 0.00 0.00 0.00 0.00 0.00 0.00
0.53 0.76 0.98 1.07 1.03 0.79 0.73 1.21 1.23 0.76 0.38 0.21 0.18 0.30 0.48 0.23 0.18 0.16 0.31 0.32 0.12 0.09 0.06 0.08 0.05 0.01 0.01 0.00 0.00 0.01 0.00 0.00 0.01 0.01 0.01 0.01 0.00 0.00 0.00 0.00 0.00 0.00 0.00 0.00
0.69 0.74 0.83 0.86 1.04 0.95 1.02 1.07 0.87 0.43 0.17 0.06 0.03 0.08 0.36 0.48 0.24 0.18 0.27 0.43 0.30 0.05 0.03 0.05 0.03 0.01 0.01 0.01 0.01 0.01 0.01 0.01 0.01 0.00 0.00 0.00 0.00 0.00 0.00 0.00 0.00 0.01 0.01 0.01
0.54 0.52 0.55 0.74 0.83 0.85 0.67 0.58 0.49 0.16 0.02 0.01 0.02 0.01 0.11 0.63 0.44 0.27 0.26 0.22 0.22 0.07 0.01 0.01 0.01 0.00 0.01 0.03 0.02 0.01 0.00 0.00 0.00 0.00 0.00 0.01 0.01 0.02 0.02 0.02 0.03 0.05 0.07 0.08
0.61 0.35 0.47 0.54 0.59 0.54 0.28 0.18 0.17 0.05 0.00 0.01 0.01 0.01 0.04 0.36 0.56 0.46 0.36 0.23 0.14 0.06 0.04 0.01 0.00 0.01 0.01 0.02 0.01 0.00 0.00 0.00 0.00 0.01 0.02 0.03 0.04 0.04 0.05 0.06 0.09 0.09 0.07 0.04
0.53 0.47 0.31 0.44 0.25 0.13 0.05 0.03 0.04 0.01 0.00 0.01 0.01 0.01 0.05 0.15 0.26 0.34 0.41 0.27 0.06 0.03 0.02 0.01 0.01 0.02 0.02 0.01 0.00 0.01 0.02 0.03 0.04 0.06 0.06 0.06 0.07 0.10 0.12 0.11 0.10 0.07 0.04 0.02
0.53 0.29 0.26 0.24 0.07 0.05 0.09 0.06 0.04 0.02 0.02 0.02 0.01 0.03 0.05 0.05 0.10 0.06 0.05 0.07 0.05 0.01 0.01 0.01 0.03 0.03 0.01 0.01 0.00 0.01 0.04 0.06 0.08 0.08 0.07 0.08 0.08 0.07 0.08 0.09 0.07 0.04 0.01 0.00
0.32 0.26 0.29 0.15 0.08 0.14 0.12 0.07 0.09 0.06 0.05 0.03 0.02 0.06 0.03 0.04 0.01 0.01 0.01 0.01 0.01 0.01 0.02 0.04 0.04 0.05 0.03 0.03 0.03 0.05 0.08 0.11 0.13 0.11 0.10 0.10 0.11 0.11 0.07 0.03 0.01 0.00 0.00 0.00
0.32 0.37 0.28 0.15 0.16 0.27 0.18 0.13 0.13 0.09 0.06 0.05 0.03 0.04 0.03 0.02 0.01 0.01 0.02 0.03 0.03 0.04 0.04 0.06 0.04 0.04 0.04 0.05 0.07 0.08 0.09 0.11 0.13 0.12 0.09 0.06 0.04 0.01 0.01 0.00 0.00 0.00 0.00 0.00

GFSNW_prec_precacc24_072.txt.gz
Total_Precipitation_Accumulation
0.15 0.16 0.19 0.23 0.19 0.25 0.42 0.29 0.17 0.04 0.04 0.19 0.14 0.03 0.00 0.00 0.00 0.00 0.00 0.00 0.00 0.00 0.00 0.00 0.00 0.00 0.00 0.00 0.00 0.00 0.00 0.00 0.00 0.01 0.00 0.00 0.00 0.00 0.01 0.00 0.00 0.00 0.00 0.00
0.18 0.19 0.23 0.28 0.22 0.25 0.31 0.39 0.25 0.41 0.10 0.08 0.04 0.01 0.00 0.00 0.00 0.00 0.00 0.00 0.00 0.00 0.00 0.00 0.00 0.00 0.00 0.00 0.00 0.00 0.00 0.00 0.00 0.00 0.00 0.01 0.00 0.00 0.00 0.00 0.00 0.00 0.00 0.00
0.23 0.24 0.34 0.33 0.28 0.27 0.37 0.39 0.41 0.70 0.31 0.01 0.00 0.01 0.01 0.00 0.00 0.00 0.00 0.00 0.00 0.00 0.00 0.00 0.00 0.00 0.00 0.00 0.00 0.00 0.00 0.00 0.00 0.00 0.00 0.00 0.00 0.00 0.00 0.00 0.00 0.00 0.00 0.00
0.31 0.34 0.48 0.45 0.38 0.39 0.73 0.67 0.26 0.21 0.16 0.04 0.01 0.00 0.00 0.00 0.00 0.00 0.00 0.00 0.00 0.00 0.00 0.00 0.00 0.00 0.00 0.00 0.00 0.00 0.00 0.00 0.00 0.00 0.00 0.00 0.00 0.00 0.00 0.00 0.00 0.00 0.00 0.00
0.40 0.45 0.66 0.57 0.50 0.66 1.03 0.71 0.16 0.04 0.02 0.01 0.01 0.02 0.01 0.00 0.00 0.00 0.00 0.00 0.00 0.00 0.00 0.00 0.00 0.00 0.00 0.00 0.00 0.00 0.00 0.00 0.00 0.00 0.00 0.00 0.00 0.00 0.00 0.00 0.00 0.00 0.00 0.00
0.54 0.52 0.70 0.70 0.74 1.11 1.14 0.41 0.06 0.03 0.05 0.03 0.02 0.01 0.00 0.00 0.00 0.00 0.00 0.00 0.00 0.00 0.00 0.00 0.00 0.00 0.00 0.00 0.00 0.00 0.00 0.00 0.00 0.00 0.00 0.00 0.00 0.00 0.00 0.00 0.00 0.00 0.00 0.00
0.60 0.63 0.69 0.75 0.78 0.89 0.51 0.16 0.10 0.20 0.09 0.06 0.01 0.00 0.00 0.00 0.00 0.00 0.00 0.00 0.00 0.00 0.00 0.01 0.00 0.00 0.00 0.01 0.02 0.01 0.00 0.00 0.00 0.00 0.00 0.00 0.00 0.00 0.00 0.00 0.00 0.00 0.00 0.00
0.52 0.60 0.66 0.68 0.56 0.53 0.37 0.16 0.19 0.33 0.15 0.03 0.02 0.00 0.00 0.01 0.01 0.00 0.00 0.00 0.00 0.00 0.01 0.03 0.06 0.04 0.03 0.04 0.04 0.02 0.00 0.00 0.00 0.00 0.00 0.00 0.00 0.00 0.00 0.00 0.00 0.00 0.00 0.00
0.49 0.49 0.58 0.45 0.34 0.39 0.33 0.24 0.26 0.56 0.40 0.05 0.01 0.04 0.01 0.00 0.02 0.03 0.05 0.03 0.03 0.01 0.01 0.03 0.03 0.05 0.02 0.00 0.00 0.00 0.00 0.00 0.01 0.00 0.00 0.00 0.00 0.00 0.00 0.00 0.00 0.00 0.00 0.00
0.48 0.38 0.40 0.31 0.23 0.34 0.37 0.32 0.38 0.74 0.60 0.16 0.06 0.08 0.05 0.00 0.02 0.06 0.03 0.12 0.10 0.12 0.12 0.10 0.02 0.00 0.01 0.00 0.00 0.00 0.00 0.01 0.00 0.00 0.00 0.00 0.00 0.00 0.00 0.00 0.00 0.00 0.00 0.00
0.42 0.29 0.28 0.26 0.19 0.27 0.36 0.34 0.46 0.65 0.68 0.21 0.23 0.09 0.09 0.02 0.02 0.05 0.01 0.05 0.10 0.16 0.20 0.12 0.03 0.01 0.00 0.00 0.00 0.00 0.00 0.00 0.00 0.00 0.00 0.00 0.00 0.00 0.00 0.00 0.00 0.00 0.00 0.00
0.35 0.27 0.27 0.27 0.18 0.21 0.32 0.36 0.47 0.50 0.83 0.38 0.33 0.15 0.04 0.09 0.01 0.03 0.03 0.01 0.01 0.04 0.07 0.05 0.04 0.01 0.00 0.00 0.00 0.00 0.00 0.00 0.00 0.00 0.00 0.00 0.00 0.00 0.00 0.00 0.00 0.00 0.00 0.00
0.35 0.31 0.31 0.27 0.17 0.19 0.31 0.36 0.57 0.81 0.75 0.39 0.27 0.22 0.06 0.04 0.03 0.03 0.06 0.02 0.02 0.02 0.05 0.09 0.06 0.03 0.00 0.00 0.00 0.01 0.01 0.01 0.01 0.00 0.00 0.00 0.00 0.00 0.00 0.00 0.00 0.00 0.00 0.00
0.37 0.31 0.31 0.28 0.18 0.24 0.32 0.38 0.63 0.99 1.03 0.60 0.43 0.37 0.22 0.09 0.06 0.01 0.10 0.07 0.03 0.06 0.07 0.12 0.06 0.03 0.01 0.00 0.00 0.00 0.00 0.01 0.01 0.00 0.00 0.00 0.00 0.00 0.00 0.00 0.00 0.00 0.00 0.00
0.33 0.28 0.32 0.33 0.24 0.31 0.47 0.47 0.56 1.01 1.29 0.69 0.31 0.34 0.27 0.23 0.18 0.07 0.14 0.27 0.22 0.16 0.13 0.10 0.06 0.02 0.02 0.01 0.00 0.00 0.00 0.00 0.00 0.00 0.00 0.00 0.00 0.00 0.00 0.00 0.00 0.00 0.00 0.00
0.30 0.27 0.34 0.34 0.32 0.45 0.84 0.80 0.48 0.87 1.09 1.02 0.46 0.35 0.33 0.42 0.40 0.29 0.12 0.17 0.41 0.44 0.24 0.13 0.03 0.01 0.01 0.01 0.00 0.00 0.00 0.00 0.01 0.00 0.01 0.00 0.00 0.00 0.00 0.00 0.00 0.00 0.00 0.00
0.26 0.25 0.32 0.36 0.34 0.54 0.95 0.59 0.45 0.55 0.96 1.02 0.69 0.52 0.31 0.52 0.42 0.31 0.19 0.15 0.18 0.27 0.31 0.27 0.17 0.07 0.02 0.00 0.00 0.00 0.00 0.00 0.00 0.00 0.00 0.00 0.00 0.00 0.00 0.00 0.00 0.00 0.00 0.00
0.25 0.25 0.31 0.35 0.48 0.70 0.69 0.67 0.69 0.39 0.51 0.71 0.82 0.62 0.47 0.74 0.40 0.29 0.18 0.17 0.18 0.16 0.16 0.15 0.16 0.18 0.20 0.10 0.00 0.00 0.00 0.00 0.00 0.00 0.00 0.00 0.00 0.00 0.00 0.00 0.00 0.00 0.00 0.00
0.31 0.37 0.56 0.79 0.97 0.96 0.68 1.03 1.10 0.60 0.46 0.47 0.50 0.78 0.61 0.51 0.50 0.26 0.34 0.19 0.19 0.12 0.10 0.08 0.11 0.12 0.14 0.10 0.02 0.01 0.01 0.01 0.01 0.00 0.00 0.00 0.00 0.00 0.00 0.00 0.00 0.00 0.00 0.00
0.54 0.78 1.03 1.12 1.08 0.84 0.82 1.28 1.29 0.80 0.41 0.25 0.27 0.56 0.92 0.58 0.61 0.34 0.38 0.37 0.15 0.09 0.07 0.08 0.05 0.02 0.01 0.00 0.00 0.01 0.00 0.00 0.01 0.01 0.01 0.01 0.00 0.00 0.00 0.00 0.00 0.00 0.00 0.01
0.72 0.79 0.86 0.89 1.17 1.01 1.08 1.12 0.94 0.48 0.19 0.07 0.04 0.15 0.62 0.89 0.67 0.37 0.38 0.54 0.38 0.08 0.04 0.06 0.04 0.01 0.01 0.01 0.01 0.01 0.01 0.01 0.01 0.00 0.00 0.00 0.00 0.00 0.00 0.00 0.01 0.02 0.03 0.04
0.62 0.60 0.60 0.88 0.90 0.86 0.70 0.67 0.51 0.18 0.03 0.02 0.02 0.02 0.20 0.78 0.70 0.44 0.36 0.35 0.45 0.23 0.02 0.01 0.01 0.00 0.01 0.03 0.02 0.01 0.00 0.00 0.00 0.00 0.00 0.01 0.01 0.02 0.02 0.02 0.04 0.06 0.09 0.14
0.65 0.40 0.51 0.58 0.59 0.54 0.32 0.25 0.17 0.05 0.01 0.02 0.02 0.01 0.04 0.36 0.57 0.48 0.38 0.27 0.22 0.17 0.09 0.03 0.01 0.01 0.02 0.02 0.01 0.00 0.00 0.00 0.00 0.01 0.02 0.03 0.04 0.04 0.05 0.07 0.11 0.14 0.16 0.15
0.52 0.45 0.30 0.44 0.24 0.15 0.07 0.03 0.04 0.01 0.00 0.01 0.01 0.01 0.05 0.15 0.26 0.34 0.47 0.40 0.18 0.11 0.05 0.04 0.04 0.03 0.03 0.02 0.00 0.01 0.02 0.03 0.04 0.06 0.06 0.06 0.07 0.10 0.13 0.15 0.16 0.13 0.12 0.12
0.56 0.28 0.22 0.23 0.08 0.10 0.14 0.06 0.04 0.02 0.02 0.02 0.01 0.03 0.05 0.06 0.16 0.13 0.13 0.18 0.16 0.09 0.04 0.03 0.04 0.03 0.02 0.02 0.01 0.02 0.04 0.06 0.08 0.09 0.09 0.10 0.10 0.10 0.14 0.17 0.15 0.08 0.03 0.02
0.37 0.31 0.34 0.17 0.11 0.18 0.15 0.08 0.10 0.07 0.06 0.04 0.03 0.07 0.05 0.10 0.07 0.06 0.02 0.01 0.02 0.04 0.05 0.05 0.04 0.05 0.06 0.06 0.07 0.09 0.12 0.15 0.18 0.17 0.15 0.14 0.16 0.14 0.11 0.06 0.02 0.02 0.02 0.03
0.37 0.46 0.34 0.18 0.21 0.31 0.23 0.16 0.16 0.14 0.11 0.08 0.04 0.06 0.05 0.07 0.04 0.03 0.04 0.05 0.06 0.07 0.07 0.07 0.07 0.08 0.09 0.11 0.12 0.13 0.14 0.16 0.17 0.15 0.12 0.08 0.06 0.02 0.01 0.00 0.00 0.00 0.00 0.00

GFSNW_prec_precacc24_075.txt.gz
Total_Precipitation_Accumulation
0.16 0.17 0.16 0.14 0.17 0.30 0.52 0.41 0.24 0.04 0.06 0.22 0.20 0.06 0.00 0.00 0.00 0.00 0.00 0.00 0.00 0.00 0.00 0.00 0.00 0.00 0.00 0.00 0.00 0.00 0.00 0.00 0.00 0.01 0.00 0.00 0.00 0.00 0.01 0.00 0.00 0.00 0.00 0.00
0.20 0.17 0.16 0.16 0.20 0.33 0.48 0.58 0.28 0.43 0.13 0.09 0.04 0.01 0.01 0.00 0.00 0.00 0.00 0.00 0.00 0.00 0.00 0.00 0.00 0.00 0.00 0.00 0.00 0.00 0.00 0.00 0.00 0.00 0.00 0.01 0.00 0.00 0.00 0.00 0.00 0.00 0.01 0.00
0.26 0.22 0.18 0.20 0.28 0.38 0.54 0.54 0.45 0.74 0.37 0.02 0.00 0.01 0.01 0.00 0.00 0.00 0.00 0.00 0.00 0.00 0.00 0.00 0.00 0.00 0.00 0.00 0.00 0.00 0.00 0.00 0.00 0.00 0.00 0.00 0.00 0.00 0.00 0.00 0.00 0.00 0.00 0.00
0.36 0.34 0.32 0.34 0.42 0.56 0.95 0.79 0.28 0.21 0.17 0.05 0.01 0.00 0.00 0.00 0.00 0.00 0.00 0.00 0.00 0.00 0.00 0.00 0.00 0.00 0.00 0.00 0.00 0.00 0.00 0.00 0.00 0.00 0.00 0.00 0.00 0.00 0.00 0.00 0.00 0.00 0.00 0.00
0.46 0.48 0.51 0.51 0.60 0.92 1.33 0.78 0.16 0.04 0.02 0.01 0.02 0.03 0.01 0.00 0.00 0.00 0.00 0.00 0.00 0.00 0.00 0.00 0.00 0.00 0.00 0.00 0.00 0.00 0.00 0.00 0.00 0.00 0.00 0.00 0.00 0.00 0.00 0.00 0.00 0.00 0.00 0.00
0.51 0.54 0.61 0.71 0.95 1.51 1.61 0.45 0.06 0.04 0.04 0.04 0.03 0.01 0.00 0.00 0.00 0.00 0.00 0.00 0.00 0.00 0.00 0.00 0.00 0.00 0.00 0.00 0.00 0.00 0.00 0.00 0.00 0.00 0.00 0.00 0.00 0.00 0.00 0.00 0.00 0.00 0.00 0.00
0.49 0.59 0.67 0.78 1.06 1.34 0.76 0.16 0.11 0.21 0.08 0.07 0.01 0.00 0.00 0.00 0.00 0.00 0.00 0.00 0.00 0.00 0.00 0.02 0.01 0.01 0.00 0.01 0.02 0.01 0.00 0.00 0.00 0.00 0.00 0.00 0.00 0.00 0.00 0.00 0.00 0.00 0.00 0.00
0.41 0.56 0.72 0.85 0.89 0.87 0.42 0.09 0.18 0.34 0.15 0.03 0.02 0.01 0.00 0.01 0.01 0.00 0.00 0.00 0.00 0.00 0.01 0.04 0.06 0.06 0.06 0.04 0.04 0.02 0.00 0.00 0.01 0.00 0.00 0.00 0.00 0.00 0.00 0.00 0.00 0.00 0.00 0.00
0.42 0.44 0.65 0.70 0.69 0.67 0.36 0.17 0.25 0.55 0.40 0.05 0.01 0.05 0.02 0.01 0.02 0.04 0.06 0.03 0.03 0.01 0.01 0.03 0.03 0.05 0.03 0.01 0.02 0.00 0.00 0.00 0.03 0.01 0.00 0.00 0.00 0.00 0.00 0.00 0.00 0.00 0.00 0.00
0.41 0.36 0.42 0.59 0.51 0.55 0.44 0.30 0.38 0.75 0.60 0.16 0.06 0.09 0.08 0.02 0.03 0.08 0.04 0.13 0.13 0.13 0.13 0.10 0.02 0.00 0.01 0.00 0.02 0.02 0.01 0.01 0.01 0.02 0.01 0.00 0.00 0.00 0.00 0.00 0.00 0.00 0.00 0.00
0.38 0.28 0.30 0.43 0.42 0.42 0.47 0.36 0.46 0.63 0.68 0.24 0.26 0.10 0.12 0.06 0.05 0.08 0.02 0.11 0.13 0.20 0.22 0.13 0.03 0.01 0.00 0.00 0.00 0.01 0.02 0.02 0.02 0.03 0.02 0.00 0.00 0.00 0.00 0.00 0.00 0.00 0.00 0.00
0.33 0.28 0.28 0.34 0.33 0.37 0.40 0.36 0.47 0.50 0.86 0.43 0.36 0.17 0.08 0.12 0.02 0.04 0.06 0.03 0.01 0.04 0.08 0.06 0.04 0.01 0.01 0.00 0.00 0.00 0.01 0.01 0.04 0.01 0.00 0.00 0.00 0.00 0.00 0.00 0.00 0.00 0.00 0.00
0.33 0.32 0.32 0.31 0.29 0.37 0.35 0.34 0.57 0.82 0.77 0.42 0.28 0.22 0.06 0.07 0.07 0.05 0.15 0.05 0.02 0.02 0.05 0.09 0.06 0.03 0.00 0.00 0.00 0.01 0.01 0.01 0.01 0.00 0.00 0.00 0.00 0.00 0.00 0.00 0.00 0.00 0.00 0.00
0.37 0.31 0.33 0.33 0.36 0.40 0.31 0.34 0.62 0.98 1.02 0.58 0.43 0.37 0.22 0.09 0.09 0.02 0.11 0.10 0.03 0.07 0.08 0.16 0.07 0.03 0.01 0.00 0.00 0.00 0.00 0.01 0.01 0.00 0.00 0.00 0.00 0.00 0.00 0.00 0.00 0.00 0.00 0.00
0.33 0.30 0.37 0.47 0.47 0.49 0.45 0.39 0.50 0.98 1.27 0.67 0.31 0.34 0.27 0.24 0.19 0.09 0.15 0.29 0.27 0.18 0.16 0.12 0.06 0.02 0.02 0.01 0.00 0.00 0.00 0.00 0.00 0.00 0.00 0.00 0.00 0.00 0.00 0.00 0.00 0.00 0.00 0.00
0.32 0.33 0.48 0.62 0.62 0.53 0.81 0.79 0.48 0.83 1.07 1.02 0.47 0.36 0.32 0.42 0.41 0.30 0.12 0.18 0.47 0.48 0.26 0.14 0.03 0.01 0.01 0.01 0.00 0.00 0.00 0.00 0.01 0.00 0.01 0.00 0.00 0.00 0.00 0.00 0.00 0.00 0.00 0.00
0.33 0.39 0.56 0.59 0.39 0.50 0.91 0.59 0.46 0.55 0.97 0.98 0.66 0.50 0.31 0.52 0.43 0.33 0.22 0.18 0.22 0.34 0.38 0.30 0.18 0.08 0.02 0.00 0.00 0.00 0.00 0.00 0.00 0.00 0.00 0.00 0.00 0.00 0.00 0.00 0.00 0.00 0.00 0.00
0.35 0.40 0.39 0.34 0.44 0.68 0.67 0.69 0.69 0.38 0.52 0.67 0.78 0.62 0.61 0.86 0.50 0.33 0.22 0.22 0.24 0.20 0.23 0.19 0.19 0.21 0.21 0.10 0.00 0.00 0.00 0.00 0.00 0.00 0.00 0.00 0.00 0.00 0.00 0.00 0.00 0.00 0.00 0.00
0.36 0.41 0.62 0.87 1.01 0.97 0.67 1.03 1.10 0.61 0.47 0.48 0.49 0.79 0.95 1.06 0.78 0.35 0.40 0.29 0.25 0.16 0.12 0.10 0.16 0.14 0.15 0.11 0.02 0.01 0.01 0.01 0.01 0.00 0.00 0.00 0.00 0.00 0.00 0.00 0.00 0.00 0.00 0.00
0.58 0.82 1.08 1.18 1.10 0.86 0.86 1.34 1.35 0.83 0.43 0.29 0.28 0.58 1.08 1.05 1.13 0.48 0.44 0.46 0.20 0.11 0.08 0.10 0.08 0.03 0.01 0.00 0.00 0.01 0.00 0.00 0.01 0.01 0.01 0.01 0.00 0.00 0.00 0.00 0.00 0.00 0.00 0.01
0.73 0.79 0.87 0.90 1.22 1.14 1.17 1.16 0.99 0.50 0.20 0.09 0.05 0.18 0.75 1.17 1.19 0.57 0.51 0.60 0.44 0.11 0.06 0.09 0.05 0.01 0.02 0.01 0.01 0.01 0.01 0.01 0.01 0.00 0.00 0.00 0.00 0.00 0.00 0.00 0.01 0.02 0.04 0.05
0.62 0.60 0.64 1.02 1.03 0.94 0.71 0.68 0.52 0.19 0.04 0.03 0.03 0.09 0.32 1.07 1.22 0.72 0.51 0.42 0.48 0.25 0.04 0.04 0.02 0.01 0.01 0.03 0.02 0.01 0.00 0.00 0.00 0.00 0.00 0.01 0.01 0.02 0.02 0.02 0.04 0.06 0.10 0.16
0.69 0.43 0.56 0.62 0.60 0.54 0.33 0.27 0.18 0.06 0.01 0.03 0.07 0.16 0.16 0.56 1.06 0.85 0.48 0.35 0.29 0.24 0.15 0.05 0.01 0.01 0.02 0.02 0.01 0.00 0.00 0.00 0.00 0.01 0.02 0.03 0.04 0.04 0.05 0.07 0.12 0.16 0.20 0.22
0.54 0.45 0.29 0.44 0.23 0.16 0.08 0.05 0.04 0.01 0.01 0.03 0.07 0.14 0.17 0.28 0.45 0.47 0.56 0.51 0.33 0.26 0.18 0.11 0.08 0.05 0.04 0.03 0.01 0.01 0.02 0.03 0.04 0.06 0.06 0.06 0.07 0.10 0.15 0.17 0.19 0.15 0.15 0.18
0.55 0.26 0.21 0.23 0.08 0.10 0.15 0.06 0.04 0.03 0.03 0.03 0.03 0.06 0.12 0.12 0.19 0.16 0.24 0.35 0.31 0.17 0.10 0.09 0.09 0.08 0.08 0.08 0.08 0.09 0.09 0.09 0.10 0.11 0.10 0.12 0.12 0.11 0.16 0.20 0.18 0.09 0.06 0.05
0.33 0.28 0.33 0.16 0.13 0.24 0.19 0.09 0.10 0.08 0.06 0.04 0.05 0.09 0.13 0.14 0.09 0.12 0.11 0.05 0.06 0.09 0.11 0.11 0.08 0.08 0.10 0.11 0.12 0.14 0.17 0.19 0.21 0.20 0.17 0.17 0.18 0.15 0.13 0.09 0.05 0.05 0.05 0.05
0.34 0.44 0.34 0.20 0.24 0.37 0.28 0.18 0.18 0.16 0.13 0.09 0.06 0.09 0.10 0.10 0.07 0.10 0.06 0.07 0.10 0.10 0.11 0.11 0.10 0.12 0.14 0.16 0.17 0.19 0.19 0.20 0.20 0.17 0.13 0.09 0.07 0.02 0.01 0.01 0.02 0.01 0.01 0.00

GFSNW_prec_precacc24_081.txt.gz
Total_Precipitation_Accumulation
0.13 0.14 0.16 0.16 0.18 0.34 0.69 0.90 0.59 0.10 0.10 0.32 0.23 0.07 0.00 0.00 0.00 0.00 0.00 0.00 0.00 0.00 0.00 0.01 0.00 0.00 0.00 0.00 0.00 0.00 0.00 0.00 0.00 0.00 0.00 0.00 0.00 0.00 0.00 0.00 0.00 0.00 0.00 0.00
0.16 0.15 0.16 0.18 0.20 0.42 0.81 1.19 0.47 0.38 0.19 0.16 0.06 0.01 0.01 0.00 0.00 0.00 0.00 0.00 0.00 0.00 0.00 0.01 0.01 0.01 0.00 0.00 0.00 0.00 0.00 0.00 0.00 0.00 0.00 0.00 0.00 0.00 0.00 0.00 0.00 0.00 0.01 0.00
0.21 0.19 0.18 0.21 0.31 0.46 1.00 1.25 0.63 0.72 0.39 0.04 0.01 0.02 0.02 0.00 0.00 0.00 0.00 0.00 0.00 0.00 0.03 0.02 0.03 0.04 0.01 0.00 0.00 0.00 0.00 0.00 0.00 0.00 0.00 0.00 0.00 0.00 0.00 0.00 0.00 0.00 0.00 0.00
0.30 0.29 0.32 0.36 0.43 0.63 1.62 1.67 0.46 0.24 0.26 0.12 0.02 0.01 0.00 0.00 0.00 0.00 0.00 0.00 0.00 0.02 0.00 0.04 0.05 0.08 0.04 0.00 0.00 0.00 0.00 0.00 0.00 0.00 0.00 0.00 0.00 0.00 0.00 0.00 0.00 0.00 0.00 0.00
0.38 0.41 0.48 0.55 0.60 0.94 2.13 1.61 0.24 0.05 0.03 0.02 0.03 0.03 0.02 0.00 0.00 0.00 0.00 0.00 0.00 0.01 0.03 0.02 0.06 0.13 0.24 0.06 0.00 0.00 0.00 0.00 0.00 0.00 0.00 0.00 0.00 0.00 0.00 0.00 0.00 0.00 0.00 0.00
0.46 0.48 0.56 0.74 0.87 1.55 2.71 1.20 0.09 0.05 0.07 0.06 0.04 0.02 0.01 0.00 0.00 0.00 0.00 0.00 0.00 0.00 0.02 0.03 0.04 0.07 0.08 0.06 0.00 0.00 0.00 0.00 0.00 0.01 0.00 0.00 0.00 0.00 0.00 0.00 0.00 0.00 0.00 0.00
0.43 0.53 0.60 0.77 0.94 1.50 1.76 0.55 0.06 0.16 0.21 0.08 0.02 0.00 0.00 0.00 0.00 0.00 0.00 0.00 0.00 0.00 0.00 0.11 0.11 0.10 0.07 0.01 0.02 0.02 0.00 0.00 0.01 0.02 0.00 0.00 0.00 0.00 0.00 0.00 0.00 0.00 0.00 0.00
0.37 0.50 0.64 0.76 0.80 1.09 1.10 0.50 0.08 0.22 0.16 0.06 0.03 0.02 0.01 0.01 0.01 0.00 0.00 0.00 0.00 0.00 0.02 0.12 0.31 0.27 0.18 0.05 0.03 0.02 0.01 0.01 0.07 0.04 0.02 0.00 0.00 0.00 0.00 0.00 0.00 0.00 0.00 0.00
0.37 0.40 0.59 0.61 0.66 0.86 0.89 0.63 0.26 0.31 0.33 0.05 0.02 0.06 0.04 0.02 0.02 0.03 0.01 0.00 0.00 0.01 0.03 0.12 0.17 0.30 0.22 0.02 0.03 0.00 0.01 0.01 0.06 0.10 0.02 0.00 0.00 0.00 0.00 0.00 0.00 0.00 0.00 0.00
0.39 0.36 0.39 0.54 0.53 0.72 0.81 0.71 0.40 0.50 0.47 0.16 0.07 0.16 0.11 0.03 0.03 0.05 0.04 0.03 0.05 0.11 0.15 0.16 0.10 0.05 0.07 0.05 0.03 0.06 0.03 0.03 0.04 0.07 0.10 0.01 0.00 0.00 0.00 0.00 0.00 0.00 0.00 0.00
0.39 0.32 0.30 0.42 0.46 0.57 0.74 0.63 0.43 0.57 0.54 0.23 0.27 0.20 0.14 0.08 0.06 0.06 0.02 0.14 0.08 0.20 0.23 0.13 0.06 0.02 0.01 0.01 0.01 0.03 0.09 0.07 0.04 0.06 0.06 0.02 0.00 0.00 0.00 0.00 0.00 0.00 0.00 0.00
0.34 0.31 0.32 0.37 0.40 0.48 0.70 0.57 0.42 0.44 0.62 0.33 0.38 0.20 0.11 0.13 0.02 0.04 0.07 0.04 0.01 0.09 0.13 0.09 0.05 0.02 0.01 0.00 0.00 0.00 0.01 0.03 0.07 0.03 0.01 0.00 0.00 0.00 0.00 0.00 0.00 0.00 0.00 0.00
0.32 0.33 0.36 0.40 0.39 0.50 0.66 0.44 0.42 0.54 0.95 0.46 0.23 0.21 0.07 0.14 0.08 0.08 0.21 0.06 0.02 0.03 0.08 0.15 0.11 0.04 0.00 0.00 0.00 0.01 0.01 0.01 0.01 0.01 0.00 0.01 0.03 0.04 0.00 0.00 0.00 0.00 0.00 0.00
0.35 0.31 0.35 0.42 0.53 0.60 0.59 0.35 0.44 0.62 1.04 0.59 0.26 0.35 0.23 0.12 0.12 0.03 0.07 0.06 0.05 0.15 0.13 0.33 0.21 0.06 0.01 0.00 0.00 0.00 0.00 0.01 0.01 0.00 0.00 0.01 0.00 0.01 0.01 0.00 0.00 0.00 0.00 0.00
0.33 0.32 0.39 0.61 0.79 0.80 0.62 0.31 0.35 0.46 0.86 0.52 0.24 0.33 0.28 0.26 0.19 0.07 0.05 0.05 0.26 0.45 0.31 0.22 0.11 0.04 0.03 0.01 0.00 0.00 0.00 0.00 0.00 0.00 0.00 0.00 0.00 0.00 0.00 0.00 0.00 0.00 0.00 0.00
0.38 0.38 0.57 0.93 1.01 0.81 0.75 1.09 0.58 0.35 0.67 0.89 0.48 0.37 0.33 0.43 0.41 0.27 0.10 0.11 0.46 0.65 0.58 0.26 0.08 0.03 0.05 0.02 0.00 0.00 0.00 0.00 0.01 0.00 0.01 0.00 0.00 0.00 0.00 0.00 0.00 0.00 0.00 0.00
0.40 0.48 0.79 0.87 0.61 0.37 0.71 0.79 0.75 0.47 0.54 0.82 0.62 0.50 0.35 0.53 0.43 0.32 0.20 0.16 0.23 0.44 0.68 0.57 0.25 0.10 0.06 0.02 0.00 0.00 0.00 0.00 0.00 0.00 0.00 0.00 0.00 0.00 0.00 0.00 0.00 0.00 0.00 0.00
0.48 0.64 0.71 0.62 0.48 0.51 0.39 0.45 0.64 0.33 0.44 0.64 0.65 0.61 0.66 0.91 0.52 0.33 0.22 0.23 0.29 0.28 0.42 0.41 0.39 0.28 0.29 0.13 0.00 0.00 0.00 0.00 0.00 0.00 0.00 0.00 0.00 0.00 0.00 0.00 0.00 0.00 0.00 0.00
0.55 0.74 0.87 0.90 0.68 0.60 0.45 0.92 1.12 0.61 0.50 0.48 0.37 0.64 1.00 1.29 0.84 0.38 0.43 0.34 0.37 0.25 0.24 0.21 0.40 0.38 0.22 0.12 0.02 0.01 0.01 0.01 0.01 0.00 0.00 0.00 0.00 0.00 0.00 0.00 0.00 0.00 0.00 0.00
0.55 0.72 0.97 1.11 0.69 0.57 0.69 1.27 1.31 0.82 0.45 0.33 0.28 0.46 0.96 1.29 1.35 0.58 0.49 0.53 0.27 0.18 0.11 0.19 0.23 0.16 0.02 0.03 0.05 0.01 0.01 0.00 0.01 0.01 0.01 0.01 0.00 0.00 0.00 0.00 0.00 0.00 0.00 0.01
0.57 0.63 0.68 0.74 0.86 0.95 1.02 1.14 0.94 0.49 0.22 0.10 0.06 0.16 0.66 1.18 1.33 0.78 0.62 0.67 0.47 0.14 0.10 0.16 0.17 0.04 0.10 0.10 0.07 0.03 0.01 0.01 0.01 0.00 0.00 0.00 0.00 0.00 0.00 0.00 0.01 0.02 0.04 0.05
0.51 0.56 0.65 0.94 0.82 0.78 0.62 0.69 0.56 0.19 0.06 0.03 0.05 0.10 0.29 1.00 1.25 0.87 0.70 0.51 0.61 0.30 0.13 0.08 0.06 0.08 0.01 0.03 0.02 0.01 0.01 0.01 0.01 0.01 0.01 0.01 0.01 0.02 0.02 0.03 0.04 0.07 0.11 0.18
0.70 0.41 0.52 0.56 0.48 0.42 0.32 0.28 0.18 0.07 0.05 0.06 0.11 0.18 0.21 0.61 1.13 0.99 0.80 0.49 0.35 0.37 0.24 0.08 0.02 0.02 0.02 0.02 0.01 0.00 0.00 0.00 0.00 0.01 0.02 0.03 0.04 0.04 0.06 0.09 0.16 0.21 0.28 0.36
0.54 0.43 0.25 0.39 0.20 0.19 0.14 0.09 0.06 0.02 0.03 0.05 0.08 0.21 0.41 0.54 0.67 0.73 0.77 0.69 0.44 0.49 0.29 0.14 0.10 0.06 0.05 0.03 0.01 0.01 0.02 0.03 0.04 0.06 0.06 0.06 0.08 0.12 0.19 0.27 0.32 0.29 0.33 0.37
0.54 0.24 0.19 0.25 0.13 0.15 0.17 0.08 0.05 0.03 0.04 0.06 0.16 0.31 0.50 0.61 0.58 0.44 0.39 0.61 0.50 0.34 0.21 0.15 0.16 0.13 0.11 0.11 0.10 0.12 0.13 0.12 0.13 0.16 0.17 0.23 0.24 0.23 0.32 0.36 0.32 0.18 0.14 0.11
0.31 0.26 0.32 0.18 0.15 0.28 0.22 0.11 0.12 0.09 0.07 0.11 0.28 0.53 0.57 0.52 0.42 0.34 0.27 0.23 0.17 0.17 0.19 0.20 0.18 0.19 0.21 0.20 0.21 0.25 0.31 0.35 0.39 0.39 0.35 0.34 0.32 0.27 0.25 0.21 0.13 0.12 0.08 0.08
0.24 0.40 0.33 0.22 0.32 0.43 0.33 0.23 0.21 0.19 0.16 0.17 0.23 0.38 0.48 0.34 0.24 0.28 0.19 0.18 0.22 0.24 0.25 0.26 0.25 0.27 0.30 0.32 0.32 0.35 0.35 0.36 0.36 0.34 0.28 0.23 0.18 0.09 0.04 0.05 0.05 0.03 0.02 0.01

GFSNW_prec_precacc24_084.txt.gz
Total_Precipitation_Accumulation
0.11 0.11 0.13 0.13 0.16 0.34 0.76 0.96 0.69 0.12 0.09 0.34 0.25 0.08 0.00 0.00 0.00 0.00 0.00 0.00 0.00 0.00 0.00 0.01 0.01 0.01 0.00 0.00 0.00 0.00 0.00 0.00 0.00 0.00 0.00 0.00 0.00 0.00 0.00 0.00 0.00 0.00 0.00 0.00
0.13 0.12 0.12 0.15 0.18 0.43 0.91 1.35 0.53 0.41 0.19 0.17 0.08 0.02 0.01 0.00 0.00 0.00 0.00 0.00 0.00 0.00 0.00 0.01 0.01 0.01 0.00 0.00 0.00 0.00 0.00 0.00 0.00 0.00 0.00 0.00 0.00 0.00 0.00 0.00 0.00 0.00 0.02 0.00
0.19 0.17 0.15 0.18 0.28 0.50 1.22 1.46 0.70 0.76 0.47 0.05 0.01 0.02 0.03 0.01 0.00 0.00 0.00 0.00 0.00 0.00 0.03 0.02 0.03 0.04 0.02 0.01 0.00 0.00 0.00 0.00 0.00 0.00 0.00 0.00 0.00 0.00 0.00 0.00 0.00 0.00 0.00 0.00
0.29 0.27 0.29 0.34 0.43 0.74 2.02 1.99 0.54 0.25 0.31 0.18 0.03 0.01 0.01 0.00 0.00 0.00 0.00 0.00 0.00 0.02 0.00 0.04 0.05 0.09 0.11 0.04 0.01 0.00 0.00 0.00 0.00 0.00 0.00 0.00 0.00 0.00 0.00 0.00 0.00 0.00 0.00 0.00
0.38 0.41 0.45 0.50 0.64 1.13 2.63 1.87 0.28 0.05 0.03 0.02 0.05 0.04 0.02 0.01 0.00 0.00 0.00 0.00 0.00 0.01 0.03 0.02 0.06 0.13 0.29 0.22 0.11 0.03 0.00 0.00 0.00 0.00 0.00 0.00 0.00 0.00 0.00 0.00 0.00 0.00 0.00 0.00
0.47 0.49 0.54 0.63 0.81 1.74 3.22 1.39 0.11 0.06 0.08 0.06 0.05 0.03 0.02 0.01 0.00 0.00 0.00 0.00 0.00 0.00 0.02 0.03 0.04 0.08 0.13 0.20 0.29 0.14 0.01 0.00 0.00 0.01 0.00 0.00 0.01 0.00 0.00 0.00 0.00 0.00 0.00 0.00
0.44 0.54 0.58 0.66 0.87 1.66 2.13 0.70 0.09 0.17 0.24 0.09 0.03 0.00 0.00 0.00 0.00 0.00 0.00 0.00 0.00 0.00 0.00 0.11 0.11 0.10 0.09 0.02 0.07 0.17 0.12 0.02 0.01 0.02 0.01 0.03 0.02 0.00 0.00 0.00 0.00 0.00 0.00 0.00
0.39 0.51 0.61 0.62 0.75 1.15 1.40 0.79 0.16 0.19 0.15 0.07 0.04 0.02 0.01 0.01 0.01 0.00 0.00 0.00 0.00 0.00 0.01 0.11 0.30 0.26 0.20 0.11 0.02 0.03 0.07 0.05 0.08 0.07 0.03 0.01 0.00 0.00 0.00 0.00 0.00 0.00 0.00 0.00
0.37 0.38 0.55 0.53 0.61 0.83 1.09 0.88 0.41 0.32 0.31 0.06 0.04 0.07 0.04 0.02 0.02 0.03 0.01 0.00 0.00 0.00 0.02 0.10 0.17 0.30 0.26 0.14 0.14 0.04 0.02 0.02 0.09 0.14 0.05 0.01 0.00 0.00 0.00 0.00 0.00 0.00 0.00 0.00
0.38 0.31 0.36 0.50 0.50 0.66 0.88 0.88 0.45 0.63 0.64 0.16 0.07 0.18 0.12 0.03 0.03 0.04 0.03 0.02 0.04 0.06 0.09 0.12 0.10 0.05 0.08 0.14 0.19 0.19 0.04 0.03 0.05 0.09 0.14 0.01 0.00 0.00 0.00 0.00 0.00 0.00 0.00 0.00
0.36 0.29 0.27 0.39 0.43 0.56 0.77 0.63 0.37 0.57 0.77 0.25 0.22 0.19 0.15 0.08 0.06 0.07 0.02 0.12 0.07 0.16 0.12 0.08 0.06 0.03 0.01 0.01 0.04 0.11 0.15 0.07 0.04 0.06 0.07 0.02 0.00 0.00 0.00 0.00 0.00 0.00 0.00 0.00
0.33 0.31 0.31 0.35 0.39 0.49 0.74 0.56 0.34 0.36 0.72 0.43 0.34 0.18 0.11 0.13 0.02 0.04 0.05 0.03 0.01 0.05 0.09 0.06 0.05 0.03 0.01 0.00 0.00 0.00 0.02 0.04 0.07 0.03 0.01 0.00 0.01 0.00 0.00 0.00 0.00 0.00 0.00 0.00
0.32 0.32 0.35 0.47 0.46 0.55 0.71 0.44 0.32 0.49 1.05 0.64 0.27 0.19 0.07 0.14 0.08 0.08 0.20 0.05 0.01 0.03 0.05 0.15 0.14 0.07 0.00 0.00 0.00 0.01 0.01 0.01 0.01 0.01 0.00 0.01 0.03 0.04 0.00 0.00 0.00 0.00 0.00 0.00
0.32 0.32 0.36 0.50 0.68 0.69 0.66 0.33 0.32 0.57 1.14 0.76 0.26 0.30 0.23 0.11 0.12 0.04 0.11 0.07 0.07 0.14 0.15 0.39 0.29 0.10 0.03 0.00 0.00 0.00 0.00 0.01 0.01 0.00 0.00 0.01 0.00 0.01 0.01 0.00 0.00 0.00 0.00 0.00
0.35 0.36 0.42 0.68 0.95 0.94 0.71 0.28 0.27 0.33 0.59 0.49 0.16 0.23 0.28 0.25 0.20 0.12 0.08 0.09 0.19 0.38 0.29 0.24 0.16 0.08 0.08 0.04 0.01 0.00 0.00 0.00 0.00 0.00 0.00 0.00 0.00 0.00 0.00 0.00 0.00 0.00 0.00 0.00
0.39 0.40 0.60 1.01 1.18 0.99 0.97 1.17 0.63 0.25 0.44 0.64 0.31 0.18 0.28 0.43 0.39 0.30 0.14 0.14 0.21 0.31 0.40 0.17 0.09 0.04 0.13 0.09 0.01 0.00 0.00 0.00 0.01 0.00 0.01 0.00 0.00 0.00 0.00 0.00 0.00 0.00 0.00 0.01
0.42 0.51 0.85 0.98 0.82 0.62 0.75 0.73 0.58 0.29 0.45 0.86 0.47 0.27 0.28 0.57 0.43 0.31 0.20 0.14 0.20 0.31 0.49 0.38 0.19 0.10 0.12 0.07 0.01 0.00 0.00 0.00 0.00 0.00 0.00 0.00 0.00 0.01 0.00 0.00 0.00 0.00 0.01 0.01
0.52 0.71 0.82 0.76 0.62 0.52 0.28 0.22 0.17 0.13 0.50 0.78 0.57 0.52 0.64 1.00 0.54 0.32 0.22 0.20 0.26 0.26 0.40 0.35 0.34 0.27 0.29 0.13 0.00 0.00 0.00 0.00 0.00 0.00 0.00 0.00 0.00 0.00 0.00 0.00 0.00 0.00 0.00 0.00
0.68 0.93 1.02 1.03 0.76 0.55 0.32 0.54 0.58 0.38 0.62 0.55 0.37 0.62 0.99 1.30 0.84 0.38 0.43 0.33 0.36 0.25 0.23 0.20 0.39 0.42 0.29 0.12 0.02 0.00 0.01 0.01 0.01 0.00 0.00 0.00 0.01 0.00 0.00 0.00 0.00 0.00 0.00 0.00
0.64 0.71 0.92 1.29 0.67 0.30 0.48 0.84 1.13 0.88 0.52 0.33 0.28 0.46 0.96 1.29 1.35 0.58 0.49 0.53 0.26 0.18 0.11 0.20 0.23 0.19 0.12 0.09 0.14 0.03 0.01 0.00 0.01 0.01 0.01 0.01 0.00 0.00 0.00 0.00 0.00 0.00 0.00 0.01
0.39 0.49 0.76 0.71 0.59 0.64 0.71 0.90 0.93 0.54 0.23 0.10 0.06 0.16 0.66 1.18 1.33 0.78 0.62 0.68 0.47 0.14 0.10 0.16 0.17 0.05 0.13 0.19 0.17 0.08 0.02 0.01 0.01 0.00 0.00 0.00 0.00 0.00 0.00 0.00 0.01 0.02 0.04 0.05
0.35 0.46 0.52 0.75 0.60 0.56 0.43 0.62 0.56 0.20 0.06 0.03 0.05 0.10 0.29 1.00 1.24 0.86 0.69 0.55 0.74 0.31 0.16 0.09 0.07 0.09 0.01 0.03 0.04 0.06 0.05 0.04 0.03 0.02 0.01 0.01 0.01 0.02 0.02 0.03 0.04 0.07 0.11 0.18
0.67 0.36 0.36 0.37 0.33 0.32 0.30 0.28 0.18 0.07 0.05 0.06 0.11 0.18 0.21 0.56 1.04 0.89 0.78 0.52 0.40 0.43 0.31 0.09 0.02 0.04 0.06 0.02 0.00 0.01 0.02 0.10 0.03 0.02 0.03 0.03 0.04 0.05 0.06 0.10 0.16 0.21 0.29 0.37
0.51 0.37 0.21 0.31 0.18 0.20 0.16 0.09 0.06 0.03 0.03 0.05 0.08 0.21 0.41 0.51 0.63 0.64 0.70 0.73 0.48 0.51 0.30 0.14 0.10 0.05 0.05 0.06 0.04 0.02 0.03 0.10 0.18 0.07 0.07 0.06 0.08 0.12 0.20 0.28 0.33 0.30 0.35 0.42
0.54 0.24 0.18 0.27 0.16 0.19 0.21 0.10 0.05 0.05 0.05 0.06 0.17 0.33 0.54 0.71 0.67 0.50 0.44 0.69 0.59 0.37 0.22 0.15 0.16 0.13 0.12 0.12 0.12 0.13 0.13 0.12 0.14 0.17 0.19 0.24 0.25 0.23 0.34 0.40 0.36 0.22 0.19 0.18
0.31 0.26 0.33 0.20 0.16 0.28 0.22 0.12 0.13 0.10 0.09 0.15 0.39 0.70 0.72 0.67 0.54 0.49 0.34 0.28 0.19 0.19 0.20 0.22 0.19 0.21 0.23 0.23 0.23 0.27 0.32 0.37 0.40 0.40 0.36 0.37 0.36 0.30 0.32 0.30 0.24 0.23 0.17 0.15
0.24 0.40 0.34 0.23 0.32 0.44 0.35 0.25 0.23 0.20 0.18 0.24 0.36 0.51 0.60 0.44 0.28 0.30 0.21 0.20 0.24 0.26 0.27 0.28 0.28 0.29 0.33 0.35 0.35 0.38 0.38 0.40 0.38 0.38 0.32 0.30 0.27 0.16 0.11 0.13 0.13 0.07 0.05 0.03